Wetterdaten: Mittwoch, 01.11.2017
Datum Zeit Temp. Aussen Temp. o. S. +5cm Feuchte Auss BlattFeu 1 Luftdruck Regen Sonnenschein Regendauer Solar Windben Empfang
01.11.2017 00:00 9,5 C 8,9 C 7,8 C 87 % 0 lf 1022,2 hPa 0,0 l/m 0 min 0 min 0 W/m 14,6 km/h (3 Bft) 93,62 %
01.11.2017 00:02 9,5 C 8,9 C 7,8 C 87 % 0 lf 1022,2 hPa 0,0 l/m 0 min 0 min 0 W/m 10,5 km/h (2 Bft) 90,00 %
01.11.2017 00:04 9,5 C 8,9 C 7,8 C 88 % 3 lf 1022,2 hPa 0,0 l/m 0 min 0 min 0 W/m 20,9 km/h (4 Bft) 97,87 %
01.11.2017 00:07 9,4 C 8,9 C 7,8 C 88 % 11 lf 1022,1 hPa 0,0 l/m 0 min 3 min 0 W/m 20,9 km/h (4 Bft) 97,87 %
01.11.2017 00:08 9,4 C 8,9 C 7,8 C 88 % 11 lf 1022,1 hPa 0,0 l/m 0 min 1 min 0 W/m 20,9 km/h (4 Bft) 97,87 %
01.11.2017 00:10 9,4 C 8,9 C 7,8 C 88 % 11 lf 1022,1 hPa 0,0 l/m 0 min 2 min 0 W/m 20,9 km/h (4 Bft) 97,87 %
01.11.2017 00:12 9,4 C 8,3 C 7,2 C 88 % 9 lf 1022,1 hPa 0,0 l/m 0 min 0 min 0 W/m 20,9 km/h (4 Bft) 97,87 %
01.11.2017 00:14 9,4 C 8,3 C 7,2 C 88 % 7 lf 1022,2 hPa 0,0 l/m 0 min 0 min 0 W/m 20,9 km/h (4 Bft) 94,04 %
01.11.2017 00:16 9,4 C 8,3 C 7,2 C 88 % 4 lf 1022,2 hPa 0,0 l/m 0 min 0 min 0 W/m 16,7 km/h (3 Bft) 94,04 %
01.11.2017 00:18 9,4 C 8,3 C 7,2 C 88 % 3 lf 1022,2 hPa 0,0 l/m 0 min 0 min 0 W/m 16,7 km/h (3 Bft) 94,04 %
01.11.2017 00:20 9,4 C 8,3 C 7,2 C 88 % 1 lf 1022,2 hPa 0,0 l/m 0 min 0 min 0 W/m 18,8 km/h (3 Bft) 94,04 %
01.11.2017 00:22 9,4 C 8,3 C 7,2 C 88 % 1 lf 1022,2 hPa 0,0 l/m 0 min 0 min 0 W/m 18,8 km/h (3 Bft) 94,04 %
01.11.2017 00:24 9,4 C 8,3 C 7,2 C 89 % 0 lf 1022,1 hPa 0,0 l/m 0 min 0 min 0 W/m 18,8 km/h (3 Bft) 94,04 %
01.11.2017 00:26 9,3 C 8,3 C 7,2 C 89 % 0 lf 1022,1 hPa 0,0 l/m 0 min 0 min 0 W/m 18,8 km/h (3 Bft) 94,31 %
01.11.2017 00:28 9,3 C 8,3 C 7,2 C 89 % 1 lf 1022,1 hPa 0,0 l/m 0 min 0 min 0 W/m 12,6 km/h (3 Bft) 91,49 %
01.11.2017 00:30 9,3 C 8,9 C 7,2 C 89 % 0 lf 1022,2 hPa 0,0 l/m 0 min 0 min 0 W/m 16,7 km/h (3 Bft) 93,62 %
01.11.2017 00:32 9,3 C 8,9 C 7,2 C 89 % 0 lf 1022,1 hPa 0,0 l/m 0 min 0 min 0 W/m 16,7 km/h (3 Bft) 95,74 %
01.11.2017 00:34 9,3 C 8,9 C 7,8 C 89 % 0 lf 1022,2 hPa 0,0 l/m 0 min 0 min 0 W/m 14,6 km/h (3 Bft) 93,62 %
01.11.2017 00:36 9,3 C 8,9 C 7,8 C 89 % 0 lf 1022,2 hPa 0,0 l/m 0 min 0 min 0 W/m 14,6 km/h (3 Bft) 95,65 %
01.11.2017 00:38 9,3 C 8,9 C 7,8 C 89 % 0 lf 1022,1 hPa 0,0 l/m 0 min 0 min 0 W/m 16,7 km/h (3 Bft) 91,49 %
01.11.2017 00:40 9,3 C 8,9 C 7,8 C 89 % 0 lf 1022,1 hPa 0,0 l/m 0 min 0 min 0 W/m 14,6 km/h (3 Bft) 95,74 %
01.11.2017 00:42 9,3 C 8,9 C 7,8 C 89 % 0 lf 1022,1 hPa 0,0 l/m 0 min 0 min 0 W/m 14,6 km/h (3 Bft) 95,74 %
01.11.2017 00:44 9,3 C 8,9 C 7,8 C 89 % 0 lf 1022,1 hPa 0,0 l/m 0 min 0 min 0 W/m 14,6 km/h (3 Bft) 93,62 %
01.11.2017 00:46 9,2 C 8,9 C 7,8 C 89 % 0 lf 1022,1 hPa 0,0 l/m 0 min 0 min 0 W/m 14,6 km/h (3 Bft) 95,74 %
01.11.2017 00:48 9,2 C 8,9 C 7,8 C 89 % 0 lf 1022,1 hPa 0,0 l/m 0 min 0 min 0 W/m 14,6 km/h (3 Bft) 95,74 %
01.11.2017 00:50 9,2 C 8,9 C 7,8 C 89 % 0 lf 1022,2 hPa 0,0 l/m 0 min 0 min 0 W/m 18,8 km/h (3 Bft) 93,48 %
01.11.2017 00:52 9,2 C 8,9 C 7,8 C 89 % 0 lf 1022,1 hPa 0,0 l/m 0 min 0 min 0 W/m 14,6 km/h (3 Bft) 95,74 %
01.11.2017 00:54 9,2 C 8,9 C 7,8 C 89 % 0 lf 1022,1 hPa 0,0 l/m 0 min 0 min 0 W/m 14,6 km/h (3 Bft) 95,74 %
01.11.2017 00:56 9,2 C 8,9 C 7,8 C 89 % 0 lf 1022,1 hPa 0,0 l/m 0 min 0 min 0 W/m 16,7 km/h (3 Bft) 97,87 %
01.11.2017 00:58 9,2 C 8,9 C 7,8 C 89 % 0 lf 1022,0 hPa 0,0 l/m 0 min 0 min 0 W/m 14,6 km/h (3 Bft) 95,74 %
01.11.2017 01:00 9,2 C 8,9 C 7,8 C 89 % 0 lf 1022,1 hPa 0,0 l/m 0 min 0 min 0 W/m 12,6 km/h (3 Bft) 97,83 %
01.11.2017 01:02 9,2 C 8,9 C 7,8 C 89 % 0 lf 1022,0 hPa 0,0 l/m 0 min 0 min 0 W/m 16,7 km/h (3 Bft) 93,62 %
01.11.2017 01:04 9,2 C 8,9 C 7,8 C 89 % 0 lf 1022,1 hPa 0,0 l/m 0 min 0 min 0 W/m 20,9 km/h (4 Bft) 97,87 %
01.11.2017 01:06 9,2 C 8,9 C 7,8 C 89 % 0 lf 1022,1 hPa 0,0 l/m 0 min 0 min 0 W/m 16,7 km/h (3 Bft) 97,87 %
01.11.2017 01:08 9,2 C 8,9 C 7,8 C 89 % 0 lf 1022,1 hPa 0,0 l/m 0 min 0 min 0 W/m 16,7 km/h (3 Bft) 100,00 %
01.11.2017 01:10 9,2 C 8,9 C 7,8 C 89 % 0 lf 1022,1 hPa 0,0 l/m 0 min 0 min 0 W/m 14,6 km/h (3 Bft) 100,00 %
01.11.2017 01:12 9,2 C 8,9 C 7,8 C 89 % 0 lf 1022,1 hPa 0,0 l/m 0 min 0 min 0 W/m 23,0 km/h (4 Bft) 97,83 %
01.11.2017 01:14 9,2 C 8,9 C 7,8 C 89 % 0 lf 1022,1 hPa 0,0 l/m 0 min 0 min 0 W/m 18,8 km/h (3 Bft) 100,00 %
01.11.2017 01:16 9,2 C 8,9 C 7,8 C 89 % 0 lf 1022,1 hPa 0,0 l/m 0 min 0 min 0 W/m 20,9 km/h (4 Bft) 100,00 %
01.11.2017 01:18 9,2 C 8,9 C 7,8 C 89 % 0 lf 1022,1 hPa 0,0 l/m 0 min 0 min 0 W/m 20,9 km/h (4 Bft) 97,87 %
01.11.2017 01:20 9,2 C 8,9 C 7,8 C 89 % 0 lf 1022,0 hPa 0,0 l/m 0 min 0 min 0 W/m 20,9 km/h (4 Bft) 97,87 %
01.11.2017 01:22 9,2 C 8,9 C 8,3 C 89 % 0 lf 1022,1 hPa 0,0 l/m 0 min 0 min 0 W/m 23,0 km/h (4 Bft) 100,00 %
01.11.2017 01:24 9,2 C 8,9 C 8,3 C 89 % 0 lf 1022,1 hPa 0,0 l/m 0 min 0 min 0 W/m 16,7 km/h (3 Bft) 100,00 %
01.11.2017 01:26 9,2 C 9,4 C 8,3 C 89 % 0 lf 1022,1 hPa 0,0 l/m 0 min 0 min 0 W/m 16,7 km/h (3 Bft) 100,00 %
01.11.2017 01:28 9,2 C 9,4 C 8,3 C 89 % 0 lf 1022,1 hPa 0,0 l/m 0 min 0 min 0 W/m 23,0 km/h (4 Bft) 100,00 %
01.11.2017 01:30 9,2 C 9,4 C 8,3 C 89 % 0 lf 1022,0 hPa 0,0 l/m 0 min 0 min 0 W/m 14,6 km/h (3 Bft) 100,00 %
01.11.2017 01:32 9,2 C 9,4 C 8,3 C 89 % 0 lf 1022,0 hPa 0,0 l/m 0 min 0 min 0 W/m 25,1 km/h (4 Bft) 97,87 %
01.11.2017 01:34 9,2 C 9,4 C 8,3 C 89 % 0 lf 1022,0 hPa 0,0 l/m 0 min 0 min 0 W/m 23,0 km/h (4 Bft) 100,00 %
01.11.2017 01:36 9,2 C 9,4 C 8,3 C 89 % 0 lf 1022,0 hPa 0,0 l/m 0 min 0 min 0 W/m 23,0 km/h (4 Bft) 97,83 %
01.11.2017 01:38 9,2 C 9,4 C 8,3 C 89 % 0 lf 1022,0 hPa 0,0 l/m 0 min 0 min 0 W/m 20,9 km/h (4 Bft) 93,62 %
01.11.2017 01:40 9,2 C 9,4 C 8,3 C 89 % 0 lf 1022,1 hPa 0,0 l/m 0 min 0 min 0 W/m 20,9 km/h (4 Bft) 97,87 %
01.11.2017 01:42 9,3 C 9,4 C 8,3 C 89 % 0 lf 1022,0 hPa 0,0 l/m 0 min 0 min 0 W/m 23,0 km/h (4 Bft) 100,00 %
01.11.2017 01:44 9,3 C 9,4 C 8,3 C 89 % 0 lf 1022,0 hPa 0,0 l/m 0 min 0 min 0 W/m 16,7 km/h (3 Bft) 97,87 %
01.11.2017 01:46 9,3 C 9,4 C 8,3 C 89 % 0 lf 1022,0 hPa 0,0 l/m 0 min 0 min 0 W/m 23,0 km/h (4 Bft) 97,87 %
01.11.2017 01:48 9,3 C 9,4 C 8,3 C 89 % 0 lf 1022,0 hPa 0,0 l/m 0 min 0 min 0 W/m 25,1 km/h (4 Bft) 100,00 %
01.11.2017 01:50 9,3 C 9,4 C 8,3 C 89 % 0 lf 1022,0 hPa 0,0 l/m 0 min 0 min 0 W/m 14,6 km/h (3 Bft) 100,00 %
01.11.2017 01:52 9,3 C 9,4 C 8,3 C 89 % 0 lf 1022,0 hPa 0,0 l/m 0 min 0 min 0 W/m 14,6 km/h (3 Bft) 100,00 %
01.11.2017 01:54 9,3 C 9,4 C 8,3 C 89 % 0 lf 1021,9 hPa 0,0 l/m 0 min 0 min 0 W/m 12,6 km/h (3 Bft) 97,87 %
01.11.2017 01:56 9,3 C 9,4 C 8,3 C 89 % 0 lf 1021,9 hPa 0,0 l/m 0 min 0 min 0 W/m 12,6 km/h (3 Bft) 100,00 %
01.11.2017 01:58 9,3 C 9,4 C 8,3 C 89 % 0 lf 1021,9 hPa 0,0 l/m 0 min 0 min 0 W/m 14,6 km/h (3 Bft) 95,74 %
01.11.2017 02:00 9,3 C 9,4 C 8,3 C 89 % 0 lf 1021,9 hPa 0,0 l/m 0 min 0 min 0 W/m 10,5 km/h (2 Bft) 97,83 %
01.11.2017 02:02 9,3 C 9,4 C 8,3 C 89 % 0 lf 1021,9 hPa 0,0 l/m 0 min 0 min 0 W/m 10,5 km/h (2 Bft) 97,87 %
01.11.2017 02:04 9,3 C 9,4 C 8,3 C 89 % 0 lf 1021,9 hPa 0,0 l/m 0 min 0 min 0 W/m 16,7 km/h (3 Bft) 100,00 %
01.11.2017 02:06 9,3 C 9,4 C 8,3 C 89 % 0 lf 1021,8 hPa 0,0 l/m 0 min 0 min 0 W/m 12,6 km/h (3 Bft) 100,00 %
01.11.2017 02:08 9,3 C 9,4 C 8,3 C 89 % 0 lf 1021,9 hPa 0,0 l/m 0 min 0 min 0 W/m 16,7 km/h (3 Bft) 100,00 %
01.11.2017 02:10 9,3 C 9,4 C 8,3 C 89 % 0 lf 1021,9 hPa 0,0 l/m 0 min 0 min 0 W/m 14,6 km/h (3 Bft) 97,87 %
01.11.2017 02:12 9,3 C 9,4 C 8,3 C 89 % 0 lf 1021,9 hPa 0,0 l/m 0 min 0 min 0 W/m 14,6 km/h (3 Bft) 97,83 %
01.11.2017 02:14 9,3 C 9,4 C 8,3 C 89 % 0 lf 1021,9 hPa 0,0 l/m 0 min 0 min 0 W/m 14,6 km/h (3 Bft) 100,00 %
01.11.2017 02:16 9,4 C 9,4 C 8,3 C 89 % 0 lf 1021,9 hPa 0,0 l/m 0 min 0 min 0 W/m 16,7 km/h (3 Bft) 100,00 %
01.11.2017 02:18 9,4 C 9,4 C 8,3 C 89 % 0 lf 1021,9 hPa 0,0 l/m 0 min 0 min 0 W/m 10,5 km/h (2 Bft) 100,00 %
01.11.2017 02:20 9,4 C 9,4 C 8,3 C 89 % 0 lf 1022,0 hPa 0,0 l/m 0 min 0 min 0 W/m 10,5 km/h (2 Bft) 100,00 %
01.11.2017 02:22 9,4 C 9,4 C 8,3 C 89 % 0 lf 1021,9 hPa 0,0 l/m 0 min 0 min 0 W/m 8,4 km/h (2 Bft) 97,83 %
01.11.2017 02:24 9,4 C 9,4 C 8,3 C 89 % 0 lf 1021,9 hPa 0,0 l/m 0 min 0 min 0 W/m 12,6 km/h (3 Bft) 100,00 %
01.11.2017 02:26 9,4 C 9,4 C 8,3 C 89 % 0 lf 1021,9 hPa 0,0 l/m 0 min 0 min 0 W/m 14,6 km/h (3 Bft) 97,87 %
01.11.2017 02:28 9,4 C 9,4 C 8,3 C 88 % 0 lf 1021,9 hPa 0,0 l/m 0 min 0 min 0 W/m 18,8 km/h (3 Bft) 97,87 %
01.11.2017 02:30 9,4 C 9,4 C 8,3 C 88 % 0 lf 1021,9 hPa 0,0 l/m 0 min 0 min 0 W/m 14,6 km/h (3 Bft) 100,00 %
01.11.2017 02:32 9,4 C 9,4 C 8,3 C 88 % 0 lf 1021,9 hPa 0,0 l/m 0 min 0 min 0 W/m 12,6 km/h (3 Bft) 97,87 %
01.11.2017 02:34 9,4 C 9,4 C 8,3 C 88 % 0 lf 1022,0 hPa 0,0 l/m 0 min 0 min 0 W/m 10,5 km/h (2 Bft) 97,83 %
01.11.2017 02:36 9,4 C 9,4 C 8,3 C 88 % 0 lf 1021,9 hPa 0,0 l/m 0 min 0 min 0 W/m 10,5 km/h (2 Bft) 95,74 %
01.11.2017 02:38 9,4 C 9,4 C 8,3 C 88 % 0 lf 1021,9 hPa 0,0 l/m 0 min 0 min 0 W/m 16,7 km/h (3 Bft) 95,74 %
01.11.2017 02:40 9,4 C 9,4 C 8,3 C 88 % 0 lf 1021,9 hPa 0,0 l/m 0 min 0 min 0 W/m 16,7 km/h (3 Bft) 97,87 %
01.11.2017 02:42 9,4 C 9,4 C 8,3 C 88 % 0 lf 1022,0 hPa 0,0 l/m 0 min 0 min 0 W/m 16,7 km/h (3 Bft) 97,87 %
01.11.2017 02:44 9,4 C 9,4 C 8,3 C 88 % 0 lf 1022,0 hPa 0,0 l/m 0 min 0 min 0 W/m 12,6 km/h (3 Bft) 95,74 %
01.11.2017 02:46 9,4 C 9,4 C 8,3 C 88 % 0 lf 1022,0 hPa 0,0 l/m 0 min 0 min 0 W/m 12,6 km/h (3 Bft) 95,65 %
01.11.2017 02:48 9,4 C 9,4 C 8,3 C 88 % 0 lf 1022,1 hPa 0,0 l/m 0 min 0 min 0 W/m 16,7 km/h (3 Bft) 91,49 %
01.11.2017 02:50 9,4 C 9,4 C 8,3 C 88 % 0 lf 1021,9 hPa 0,0 l/m 0 min 0 min 0 W/m 14,6 km/h (3 Bft) 93,62 %
01.11.2017 02:52 9,5 C 9,4 C 8,3 C 88 % 0 lf 1022,0 hPa 0,0 l/m 0 min 0 min 0 W/m 18,8 km/h (3 Bft) 93,62 %
01.11.2017 02:54 9,4 C 9,4 C 8,3 C 88 % 0 lf 1022,0 hPa 0,0 l/m 0 min 0 min 0 W/m 14,6 km/h (3 Bft) 93,62 %
01.11.2017 02:56 9,5 C 9,4 C 8,3 C 88 % 0 lf 1021,9 hPa 0,0 l/m 0 min 0 min 0 W/m 14,6 km/h (3 Bft) 93,62 %
01.11.2017 02:58 9,5 C 9,4 C 8,3 C 88 % 0 lf 1021,9 hPa 0,0 l/m 0 min 0 min 0 W/m 16,7 km/h (3 Bft) 91,30 %
01.11.2017 03:00 9,5 C 9,4 C 8,3 C 88 % 0 lf 1021,9 hPa 0,0 l/m 0 min 0 min 0 W/m 18,8 km/h (3 Bft) 91,49 %
01.11.2017 03:02 9,5 C 9,4 C 8,3 C 88 % 0 lf 1021,8 hPa 0,0 l/m 0 min 0 min 0 W/m 14,6 km/h (3 Bft) 89,36 %
01.11.2017 03:04 9,5 C 9,4 C 8,3 C 88 % 0 lf 1021,8 hPa 0,0 l/m 0 min 0 min 0 W/m 20,9 km/h (4 Bft) 93,62 %
01.11.2017 03:06 9,5 C 9,4 C 8,3 C 88 % 0 lf 1021,8 hPa 0,0 l/m 0 min 0 min 0 W/m 14,6 km/h (3 Bft) 91,49 %
01.11.2017 03:08 9,5 C 9,4 C 8,3 C 88 % 0 lf 1021,9 hPa 0,0 l/m 0 min 0 min 0 W/m 18,8 km/h (3 Bft) 93,62 %
01.11.2017 03:10 9,5 C 9,4 C 8,3 C 88 % 0 lf 1021,8 hPa 0,0 l/m 0 min 0 min 0 W/m 12,6 km/h (3 Bft) 93,48 %
01.11.2017 03:12 9,5 C 9,4 C 8,3 C 88 % 0 lf 1021,8 hPa 0,0 l/m 0 min 0 min 0 W/m 14,6 km/h (3 Bft) 87,23 %
01.11.2017 03:14 9,5 C 9,4 C 8,3 C 89 % 0 lf 1021,8 hPa 0,0 l/m 0 min 0 min 0 W/m 14,6 km/h (3 Bft) 93,62 %
01.11.2017 03:16 9,6 C 9,4 C 8,3 C 89 % 0 lf 1021,7 hPa 0,0 l/m 0 min 0 min 0 W/m 12,6 km/h (3 Bft) 93,62 %
01.11.2017 03:18 9,6 C 9,4 C 8,3 C 89 % 0 lf 1021,7 hPa 0,0 l/m 0 min 0 min 0 W/m 18,8 km/h (3 Bft) 93,62 %
01.11.2017 03:20 9,6 C 9,4 C 8,3 C 89 % 0 lf 1021,6 hPa 0,0 l/m 0 min 0 min 0 W/m 12,6 km/h (3 Bft) 89,36 %
01.11.2017 03:22 9,6 C 9,4 C 8,3 C 89 % 0 lf 1021,5 hPa 0,0 l/m 0 min 0 min 0 W/m 14,6 km/h (3 Bft) 93,48 %
01.11.2017 03:24 9,6 C 9,4 C 8,3 C 89 % 0 lf 1021,5 hPa 0,0 l/m 0 min 0 min 0 W/m 12,6 km/h (3 Bft) 91,49 %
01.11.2017 03:26 9,6 C 9,4 C 8,3 C 89 % 0 lf 1021,4 hPa 0,0 l/m 0 min 0 min 0 W/m 18,8 km/h (3 Bft) 93,62 %
01.11.2017 03:28 9,6 C 9,4 C 8,3 C 89 % 0 lf 1021,5 hPa 0,0 l/m 0 min 0 min 0 W/m 14,6 km/h (3 Bft) 91,49 %
01.11.2017 03:30 9,6 C 9,4 C 8,3 C 89 % 0 lf 1021,5 hPa 0,0 l/m 0 min 0 min 0 W/m 12,6 km/h (3 Bft) 93,62 %
01.11.2017 03:32 9,6 C 9,4 C 8,3 C 89 % 0 lf 1021,6 hPa 0,0 l/m 0 min 0 min 0 W/m 12,6 km/h (3 Bft) 95,65 %
01.11.2017 03:34 9,6 C 9,4 C 8,3 C 89 % 0 lf 1021,6 hPa 0,0 l/m 0 min 0 min 0 W/m 16,7 km/h (3 Bft) 93,62 %
01.11.2017 03:36 9,6 C 9,4 C 8,3 C 89 % 0 lf 1021,5 hPa 0,0 l/m 0 min 0 min 0 W/m 14,6 km/h (3 Bft) 89,36 %
01.11.2017 03:38 9,6 C 9,4 C 8,3 C 89 % 0 lf 1021,6 hPa 0,0 l/m 0 min 0 min 0 W/m 14,6 km/h (3 Bft) 95,74 %
01.11.2017 03:40 9,6 C 9,4 C 8,3 C 89 % 0 lf 1021,6 hPa 0,0 l/m 0 min 0 min 0 W/m 18,8 km/h (3 Bft) 95,74 %
01.11.2017 03:42 9,6 C 9,4 C 8,3 C 89 % 0 lf 1021,6 hPa 0,0 l/m 0 min 0 min 0 W/m 10,5 km/h (2 Bft) 93,62 %
01.11.2017 03:44 9,6 C 9,4 C 8,3 C 89 % 0 lf 1021,6 hPa 0,0 l/m 0 min 0 min 0 W/m 12,6 km/h (3 Bft) 95,65 %
01.11.2017 03:46 9,6 C 9,4 C 8,3 C 89 % 0 lf 1021,6 hPa 0,0 l/m 0 min 0 min 0 W/m 10,5 km/h (2 Bft) 93,62 %
01.11.2017 03:48 9,6 C 9,4 C 8,3 C 89 % 0 lf 1021,6 hPa 0,0 l/m 0 min 0 min 0 W/m 14,6 km/h (3 Bft) 95,74 %
01.11.2017 03:50 9,6 C 9,4 C 8,3 C 89 % 0 lf 1021,6 hPa 0,0 l/m 0 min 0 min 0 W/m 10,5 km/h (2 Bft) 100,00 %
01.11.2017 03:52 9,6 C 9,4 C 8,3 C 89 % 0 lf 1021,7 hPa 0,0 l/m 0 min 0 min 0 W/m 10,5 km/h (2 Bft) 95,74 %
01.11.2017 03:54 9,6 C 9,4 C 8,3 C 89 % 0 lf 1021,7 hPa 0,0 l/m 0 min 0 min 0 W/m 12,6 km/h (3 Bft) 97,87 %
01.11.2017 03:56 9,6 C 9,4 C 8,3 C 89 % 0 lf 1021,6 hPa 0,0 l/m 0 min 0 min 0 W/m 8,4 km/h (2 Bft) 95,65 %
01.11.2017 03:58 9,6 C 9,4 C 8,3 C 89 % 0 lf 1021,7 hPa 0,0 l/m 0 min 0 min 0 W/m 10,5 km/h (2 Bft) 100,00 %
01.11.2017 04:00 9,6 C 9,4 C 8,3 C 89 % 0 lf 1021,7 hPa 0,0 l/m 0 min 0 min 0 W/m 8,4 km/h (2 Bft) 100,00 %
01.11.2017 04:05 9,6 C 9,4 C 8,3 C 89 % 0 lf 1021,5 hPa 0,0 l/m 0 min 0 min 0 W/m 10,5 km/h (2 Bft) 100,00 %
01.11.2017 04:06 9,6 C 9,4 C 8,3 C 89 % 0 lf 1021,5 hPa 0,0 l/m 0 min 0 min 0 W/m 10,5 km/h (2 Bft) 100,00 %
01.11.2017 04:08 9,6 C 9,4 C 8,3 C 89 % 0 lf 1021,5 hPa 0,0 l/m 0 min 0 min 0 W/m 12,6 km/h (3 Bft) 97,83 %
01.11.2017 04:10 9,6 C 9,4 C 8,3 C 89 % 0 lf 1021,5 hPa 0,0 l/m 0 min 0 min 0 W/m 14,6 km/h (3 Bft) 100,00 %
01.11.2017 04:12 9,6 C 9,4 C 8,3 C 89 % 0 lf 1021,6 hPa 0,0 l/m 0 min 0 min 0 W/m 12,6 km/h (3 Bft) 97,87 %
01.11.2017 04:14 9,6 C 9,4 C 8,3 C 89 % 0 lf 1021,6 hPa 0,0 l/m 0 min 0 min 0 W/m 18,8 km/h (3 Bft) 97,87 %
01.11.2017 04:16 9,7 C 9,4 C 8,3 C 89 % 0 lf 1021,5 hPa 0,0 l/m 0 min 0 min 0 W/m 16,7 km/h (3 Bft) 97,87 %
01.11.2017 04:18 9,7 C 9,4 C 8,3 C 89 % 0 lf 1021,6 hPa 0,0 l/m 0 min 0 min 0 W/m 14,6 km/h (3 Bft) 97,83 %
01.11.2017 04:20 9,7 C 9,4 C 8,3 C 89 % 0 lf 1021,5 hPa 0,0 l/m 0 min 0 min 0 W/m 16,7 km/h (3 Bft) 97,87 %
01.11.2017 04:22 9,7 C 9,4 C 8,3 C 89 % 0 lf 1021,6 hPa 0,0 l/m 0 min 0 min 0 W/m 16,7 km/h (3 Bft) 100,00 %
01.11.2017 04:24 9,7 C 9,4 C 8,3 C 89 % 0 lf 1021,6 hPa 0,0 l/m 0 min 0 min 0 W/m 10,5 km/h (2 Bft) 97,87 %
01.11.2017 04:26 9,7 C 9,4 C 8,3 C 89 % 0 lf 1021,7 hPa 0,0 l/m 0 min 0 min 0 W/m 14,6 km/h (3 Bft) 100,00 %
01.11.2017 04:28 9,7 C 9,4 C 8,3 C 89 % 0 lf 1021,7 hPa 0,0 l/m 0 min 0 min 0 W/m 10,5 km/h (2 Bft) 97,87 %
01.11.2017 04:30 9,7 C 9,4 C 8,3 C 89 % 0 lf 1021,7 hPa 0,0 l/m 0 min 0 min 0 W/m 10,5 km/h (2 Bft) 97,83 %
01.11.2017 04:32 9,7 C 9,4 C 8,3 C 89 % 0 lf 1021,6 hPa 0,0 l/m 0 min 0 min 0 W/m 12,6 km/h (3 Bft) 97,87 %
01.11.2017 04:34 9,7 C 9,4 C 8,3 C 89 % 0 lf 1021,7 hPa 0,0 l/m 0 min 0 min 0 W/m 12,6 km/h (3 Bft) 95,74 %
01.11.2017 04:36 9,7 C 9,4 C 8,3 C 89 % 0 lf 1021,6 hPa 0,0 l/m 0 min 0 min 0 W/m 12,6 km/h (3 Bft) 97,87 %
01.11.2017 04:38 9,7 C 9,4 C 8,3 C 89 % 0 lf 1021,6 hPa 0,0 l/m 0 min 0 min 0 W/m 10,5 km/h (2 Bft) 93,62 %
01.11.2017 04:40 9,7 C 9,4 C 8,3 C 89 % 0 lf 1021,6 hPa 0,0 l/m 0 min 0 min 0 W/m 14,6 km/h (3 Bft) 97,87 %
01.11.2017 04:42 9,7 C 9,4 C 8,3 C 89 % 0 lf 1021,6 hPa 0,0 l/m 0 min 0 min 0 W/m 12,6 km/h (3 Bft) 95,65 %
01.11.2017 04:44 9,7 C 9,4 C 8,3 C 89 % 0 lf 1021,6 hPa 0,0 l/m 0 min 0 min 0 W/m 12,6 km/h (3 Bft) 95,74 %
01.11.2017 04:46 9,7 C 9,4 C 8,3 C 89 % 0 lf 1021,5 hPa 0,0 l/m 0 min 0 min 0 W/m 20,9 km/h (4 Bft) 93,62 %
01.11.2017 04:48 9,7 C 9,4 C 8,3 C 89 % 0 lf 1021,5 hPa 0,0 l/m 0 min 0 min 0 W/m 14,6 km/h (3 Bft) 97,87 %
01.11.2017 04:50 9,7 C 9,4 C 8,3 C 89 % 0 lf 1021,6 hPa 0,0 l/m 0 min 0 min 0 W/m 16,7 km/h (3 Bft) 95,74 %
01.11.2017 04:52 9,7 C 9,4 C 8,3 C 89 % 0 lf 1021,5 hPa 0,0 l/m 0 min 0 min 0 W/m 14,6 km/h (3 Bft) 97,87 %
01.11.2017 04:54 9,7 C 9,4 C 8,3 C 89 % 0 lf 1021,5 hPa 0,0 l/m 0 min 0 min 0 W/m 12,6 km/h (3 Bft) 97,83 %
01.11.2017 04:56 9,7 C 9,4 C 8,3 C 89 % 0 lf 1021,5 hPa 0,0 l/m 0 min 0 min 0 W/m 12,6 km/h (3 Bft) 95,74 %
01.11.2017 04:58 9,7 C 9,4 C 8,3 C 89 % 0 lf 1021,5 hPa 0,0 l/m 0 min 0 min 0 W/m 16,7 km/h (3 Bft) 95,74 %
01.11.2017 05:00 9,7 C 9,4 C 8,3 C 89 % 0 lf 1021,6 hPa 0,0 l/m 0 min 0 min 0 W/m 16,7 km/h (3 Bft) 100,00 %
01.11.2017 05:02 9,7 C 9,4 C 8,3 C 89 % 0 lf 1021,6 hPa 0,0 l/m 0 min 0 min 0 W/m 14,6 km/h (3 Bft) 97,87 %
01.11.2017 05:04 9,7 C 9,4 C 8,3 C 89 % 0 lf 1021,6 hPa 0,0 l/m 0 min 0 min 0 W/m 14,6 km/h (3 Bft) 100,00 %
01.11.2017 05:06 9,7 C 9,4 C 8,3 C 89 % 0 lf 1021,5 hPa 0,0 l/m 0 min 0 min 0 W/m 18,8 km/h (3 Bft) 100,00 %
01.11.2017 05:08 9,7 C 9,4 C 8,3 C 89 % 0 lf 1021,5 hPa 0,0 l/m 0 min 0 min 0 W/m 16,7 km/h (3 Bft) 100,00 %
01.11.2017 05:10 9,7 C 9,4 C 8,3 C 89 % 0 lf 1021,5 hPa 0,0 l/m 0 min 0 min 0 W/m 20,9 km/h (4 Bft) 100,00 %
01.11.2017 05:12 9,7 C 9,4 C 8,9 C 89 % 0 lf 1021,5 hPa 0,0 l/m 0 min 0 min 0 W/m 18,8 km/h (3 Bft) 100,00 %
01.11.2017 05:14 9,7 C 9,4 C 8,3 C 89 % 0 lf 1021,5 hPa 0,0 l/m 0 min 0 min 0 W/m 10,5 km/h (2 Bft) 97,87 %
01.11.2017 05:16 9,7 C 9,4 C 8,3 C 89 % 0 lf 1021,5 hPa 0,0 l/m 0 min 0 min 0 W/m 12,6 km/h (3 Bft) 100,00 %
01.11.2017 05:18 9,7 C 9,4 C 8,3 C 89 % 0 lf 1021,5 hPa 0,0 l/m 0 min 0 min 0 W/m 14,6 km/h (3 Bft) 97,83 %
01.11.2017 05:20 9,7 C 9,4 C 8,3 C 89 % 0 lf 1021,4 hPa 0,0 l/m 0 min 0 min 0 W/m 20,9 km/h (4 Bft) 100,00 %
01.11.2017 05:22 9,7 C 9,4 C 8,3 C 89 % 0 lf 1021,4 hPa 0,0 l/m 0 min 0 min 0 W/m 23,0 km/h (4 Bft) 100,00 %
01.11.2017 05:24 9,7 C 9,4 C 8,3 C 89 % 0 lf 1021,4 hPa 0,0 l/m 0 min 0 min 0 W/m 16,7 km/h (3 Bft) 100,00 %
01.11.2017 05:26 9,7 C 9,4 C 8,3 C 89 % 0 lf 1021,4 hPa 0,0 l/m 0 min 0 min 0 W/m 18,8 km/h (3 Bft) 100,00 %
01.11.2017 05:28 9,7 C 9,4 C 8,9 C 89 % 0 lf 1021,4 hPa 0,0 l/m 0 min 0 min 0 W/m 16,7 km/h (3 Bft) 100,00 %
01.11.2017 05:30 9,7 C 9,4 C 8,9 C 89 % 0 lf 1021,3 hPa 0,0 l/m 0 min 0 min 0 W/m 18,8 km/h (3 Bft) 100,00 %
01.11.2017 05:32 9,7 C 9,4 C 8,9 C 89 % 0 lf 1021,3 hPa 0,0 l/m 0 min 0 min 0 W/m 18,8 km/h (3 Bft) 97,87 %
01.11.2017 05:34 9,7 C 9,4 C 8,3 C 89 % 0 lf 1021,3 hPa 0,0 l/m 0 min 0 min 0 W/m 12,6 km/h (3 Bft) 93,62 %
01.11.2017 05:35 9,7 C 9,4 C 8,3 C 89 % 0 lf 1021,4 hPa 0,0 l/m 0 min 0 min 0 W/m 20,9 km/h (4 Bft) 98,25 %
01.11.2017 05:40 9,7 C 9,4 C 8,3 C 89 % 0 lf 1021,3 hPa 0,0 l/m 0 min 0 min 0 W/m 18,8 km/h (3 Bft) 54,39 %
01.11.2017 05:45 9,7 C 9,4 C 8,3 C 89 % 0 lf 1021,4 hPa 0,0 l/m 0 min 0 min 0 W/m 23,0 km/h (4 Bft) 100,00 %
01.11.2017 05:50 9,7 C 9,4 C 8,9 C 89 % 0 lf 1021,4 hPa 0,0 l/m 0 min 0 min 0 W/m 18,8 km/h (3 Bft) 98,25 %
01.11.2017 05:55 9,7 C 9,4 C 8,3 C 89 % 0 lf 1021,4 hPa 0,0 l/m 0 min 0 min 0 W/m 16,7 km/h (3 Bft) 98,25 %
01.11.2017 06:00 9,7 C 9,4 C 8,3 C 89 % 0 lf 1021,3 hPa 0,0 l/m 0 min 0 min 0 W/m 16,7 km/h (3 Bft) 96,49 %
01.11.2017 06:05 9,7 C 9,4 C 8,3 C 89 % 0 lf 1021,4 hPa 0,0 l/m 0 min 0 min 0 W/m 16,7 km/h (3 Bft) 96,49 %
01.11.2017 06:10 9,7 C 9,4 C 8,3 C 89 % 0 lf 1021,3 hPa 0,0 l/m 0 min 0 min 0 W/m 18,8 km/h (3 Bft) 97,37 %
01.11.2017 06:15 9,7 C 9,4 C 8,3 C 89 % 0 lf 1021,3 hPa 0,0 l/m 0 min 0 min 0 W/m 14,6 km/h (3 Bft) 96,49 %
01.11.2017 06:20 9,7 C 9,4 C 8,3 C 90 % 0 lf 1021,3 hPa 0,0 l/m 0 min 0 min 0 W/m 20,9 km/h (4 Bft) 96,49 %
01.11.2017 06:25 9,7 C 9,4 C 8,3 C 90 % 0 lf 1021,3 hPa 0,0 l/m 0 min 0 min 0 W/m 20,9 km/h (4 Bft) 97,37 %
01.11.2017 06:30 9,7 C 9,4 C 8,3 C 90 % 0 lf 1021,2 hPa 0,0 l/m 0 min 0 min 0 W/m 14,6 km/h (3 Bft) 96,49 %
01.11.2017 06:35 9,7 C 9,4 C 8,3 C 90 % 0 lf 1021,2 hPa 0,0 l/m 0 min 0 min 0 W/m 18,8 km/h (3 Bft) 98,25 %
01.11.2017 06:40 9,6 C 9,4 C 8,3 C 90 % 0 lf 1021,3 hPa 0,0 l/m 0 min 0 min 0 W/m 18,8 km/h (3 Bft) 97,37 %
01.11.2017 06:45 9,6 C 9,4 C 8,3 C 90 % 0 lf 1021,2 hPa 0,0 l/m 0 min 0 min 0 W/m 14,6 km/h (3 Bft) 98,25 %
01.11.2017 06:50 9,6 C 9,4 C 8,3 C 90 % 0 lf 1021,3 hPa 0,0 l/m 0 min 0 min 0 W/m 16,7 km/h (3 Bft) 96,49 %
01.11.2017 06:55 9,6 C 9,4 C 8,3 C 90 % 0 lf 1021,3 hPa 0,0 l/m 0 min 0 min 0 W/m 16,7 km/h (3 Bft) 99,12 %
01.11.2017 07:21 9,6 C 9,4 C 8,3 C 90 % 0 lf 1021,5 hPa 0,0 l/m 0 min 0 min 0 W/m 10,5 km/h (2 Bft) 100,00 %
01.11.2017 07:22 9,6 C 9,4 C 8,3 C 90 % 0 lf 1021,5 hPa 0,0 l/m 0 min 0 min 0 W/m 8,4 km/h (2 Bft) 91,30 %
01.11.2017 07:24 9,6 C 9,4 C 8,3 C 90 % 0 lf 1021,6 hPa 0,0 l/m 0 min 0 min 0 W/m 14,6 km/h (3 Bft) 97,87 %
01.11.2017 07:26 9,6 C 9,4 C 8,3 C 90 % 0 lf 1021,6 hPa 0,0 l/m 0 min 0 min 0 W/m 12,6 km/h (3 Bft) 100,00 %
01.11.2017 07:28 9,6 C 9,4 C 8,3 C 90 % 0 lf 1021,6 hPa 0,0 l/m 0 min 0 min 0 W/m 12,6 km/h (3 Bft) 97,87 %
01.11.2017 07:30 9,6 C 9,4 C 8,3 C 90 % 0 lf 1021,6 hPa 0,0 l/m 0 min 0 min 0 W/m 8,4 km/h (2 Bft) 95,65 %
01.11.2017 07:32 9,6 C 9,4 C 8,3 C 90 % 0 lf 1021,6 hPa 0,0 l/m 0 min 0 min 0 W/m 12,6 km/h (3 Bft) 95,74 %
01.11.2017 07:34 9,6 C 9,4 C 8,3 C 90 % 0 lf 1021,6 hPa 0,0 l/m 0 min 0 min 4 W/m 16,7 km/h (3 Bft) 97,87 %
01.11.2017 07:36 9,6 C 9,4 C 8,3 C 90 % 0 lf 1021,6 hPa 0,0 l/m 0 min 0 min 5 W/m 14,6 km/h (3 Bft) 97,87 %
01.11.2017 07:38 9,6 C 9,4 C 8,3 C 90 % 0 lf 1021,6 hPa 0,0 l/m 0 min 0 min 6 W/m 10,5 km/h (2 Bft) 97,87 %
01.11.2017 07:40 9,6 C 9,4 C 8,3 C 90 % 0 lf 1021,6 hPa 0,0 l/m 0 min 0 min 7 W/m 12,6 km/h (3 Bft) 97,87 %
01.11.2017 07:42 9,6 C 9,4 C 8,3 C 90 % 0 lf 1021,6 hPa 0,0 l/m 0 min 0 min 9 W/m 12,6 km/h (3 Bft) 97,83 %
01.11.2017 07:44 9,6 C 9,4 C 8,3 C 90 % 0 lf 1021,7 hPa 0,0 l/m 0 min 0 min 9 W/m 12,6 km/h (3 Bft) 100,00 %
01.11.2017 07:46 9,6 C 9,4 C 8,3 C 90 % 0 lf 1021,7 hPa 0,0 l/m 0 min 0 min 10 W/m 16,7 km/h (3 Bft) 100,00 %
01.11.2017 07:48 9,6 C 9,4 C 8,3 C 90 % 0 lf 1021,7 hPa 0,0 l/m 0 min 0 min 11 W/m 14,6 km/h (3 Bft) 95,74 %
01.11.2017 07:50 9,6 C 9,4 C 8,3 C 90 % 0 lf 1021,7 hPa 0,0 l/m 0 min 0 min 12 W/m 14,6 km/h (3 Bft) 100,00 %
01.11.2017 07:52 9,6 C 9,4 C 8,3 C 90 % 0 lf 1021,7 hPa 0,0 l/m 0 min 0 min 12 W/m 20,9 km/h (4 Bft) 100,00 %
01.11.2017 07:54 9,6 C 9,4 C 8,3 C 90 % 0 lf 1021,7 hPa 0,0 l/m 0 min 0 min 12 W/m 18,8 km/h (3 Bft) 97,83 %
01.11.2017 07:56 9,6 C 9,4 C 8,3 C 90 % 0 lf 1021,6 hPa 0,0 l/m 0 min 0 min 14 W/m 12,6 km/h (3 Bft) 100,00 %
01.11.2017 07:58 9,6 C 9,4 C 8,9 C 90 % 0 lf 1021,8 hPa 0,0 l/m 0 min 0 min 16 W/m 16,7 km/h (3 Bft) 97,87 %
01.11.2017 08:00 9,6 C 9,4 C 8,9 C 90 % 0 lf 1021,8 hPa 0,0 l/m 0 min 0 min 18 W/m 12,6 km/h (3 Bft) 100,00 %
01.11.2017 08:02 9,6 C 9,4 C 8,9 C 90 % 0 lf 1021,7 hPa 0,0 l/m 0 min 0 min 18 W/m 14,6 km/h (3 Bft) 91,49 %
01.11.2017 08:04 9,6 C 9,4 C 8,9 C 90 % 0 lf 1021,7 hPa 0,0 l/m 0 min 0 min 19 W/m 14,6 km/h (3 Bft) 100,00 %
01.11.2017 08:06 9,6 C 9,4 C 8,9 C 90 % 0 lf 1021,8 hPa 0,0 l/m 0 min 0 min 19 W/m 12,6 km/h (3 Bft) 95,65 %
01.11.2017 08:10 9,6 C 9,4 C 8,9 C 91 % 0 lf 1021,9 hPa 0,0 l/m 0 min 0 min 20 W/m 20,9 km/h (4 Bft) 96,04 %
01.11.2017 08:12 9,6 C 9,4 C 8,9 C 91 % 0 lf 1021,9 hPa 0,0 l/m 0 min 0 min 21 W/m 12,6 km/h (3 Bft) 95,74 %
01.11.2017 08:14 9,6 C 9,4 C 8,9 C 91 % 0 lf 1021,9 hPa 0,0 l/m 0 min 0 min 22 W/m 12,6 km/h (3 Bft) 100,00 %
01.11.2017 08:16 9,6 C 9,4 C 8,9 C 91 % 0 lf 1021,9 hPa 0,0 l/m 0 min 0 min 24 W/m 16,7 km/h (3 Bft) 100,00 %
01.11.2017 08:18 9,6 C 9,4 C 8,9 C 91 % 0 lf 1021,9 hPa 0,0 l/m 0 min 0 min 26 W/m 14,6 km/h (3 Bft) 93,62 %
01.11.2017 08:20 9,7 C 10,0 C 8,9 C 91 % 0 lf 1021,9 hPa 0,0 l/m 0 min 0 min 28 W/m 12,6 km/h (3 Bft) 95,74 %
01.11.2017 08:22 9,7 C 10,0 C 8,9 C 91 % 0 lf 1021,9 hPa 0,0 l/m 0 min 0 min 32 W/m 12,6 km/h (3 Bft) 93,62 %
01.11.2017 08:24 9,7 C 10,0 C 8,9 C 91 % 0 lf 1021,9 hPa 0,0 l/m 0 min 0 min 34 W/m 12,6 km/h (3 Bft) 95,74 %
01.11.2017 08:26 9,7 C 10,0 C 8,9 C 91 % 0 lf 1021,9 hPa 0,0 l/m 0 min 0 min 28 W/m 12,6 km/h (3 Bft) 95,74 %
01.11.2017 08:28 9,7 C 10,0 C 8,9 C 91 % 0 lf 1021,9 hPa 0,0 l/m 0 min 0 min 31 W/m 16,7 km/h (3 Bft) 95,65 %
01.11.2017 08:30 9,7 C 10,0 C 8,9 C 91 % 0 lf 1021,9 hPa 0,0 l/m 0 min 0 min 33 W/m 18,8 km/h (3 Bft) 91,49 %
01.11.2017 08:32 9,7 C 10,0 C 8,9 C 91 % 0 lf 1021,9 hPa 0,0 l/m 0 min 0 min 34 W/m 12,6 km/h (3 Bft) 93,62 %
01.11.2017 08:34 9,7 C 10,0 C 8,9 C 91 % 0 lf 1021,9 hPa 0,0 l/m 0 min 0 min 37 W/m 18,8 km/h (3 Bft) 91,49 %
01.11.2017 08:36 9,7 C 10,0 C 8,9 C 91 % 0 lf 1021,9 hPa 0,0 l/m 0 min 0 min 35 W/m 16,7 km/h (3 Bft) 91,49 %
01.11.2017 08:38 9,7 C 10,0 C 8,9 C 91 % 0 lf 1021,9 hPa 0,0 l/m 0 min 0 min 33 W/m 12,6 km/h (3 Bft) 91,30 %
01.11.2017 08:40 9,7 C 10,0 C 8,9 C 91 % 0 lf 1021,9 hPa 0,0 l/m 0 min 0 min 38 W/m 16,7 km/h (3 Bft) 95,74 %
01.11.2017 08:42 9,7 C 10,0 C 8,9 C 91 % 0 lf 1022,0 hPa 0,0 l/m 0 min 0 min 37 W/m 12,6 km/h (3 Bft) 93,62 %
01.11.2017 08:44 9,7 C 10,0 C 8,9 C 91 % 0 lf 1022,0 hPa 0,0 l/m 0 min 0 min 39 W/m 18,8 km/h (3 Bft) 93,62 %
01.11.2017 08:46 9,7 C 10,0 C 8,9 C 91 % 0 lf 1022,1 hPa 0,0 l/m 0 min 0 min 38 W/m 16,7 km/h (3 Bft) 93,62 %
01.11.2017 08:48 9,7 C 10,0 C 8,9 C 90 % 0 lf 1022,1 hPa 0,0 l/m 0 min 0 min 32 W/m 18,8 km/h (3 Bft) 93,62 %
01.11.2017 08:50 9,7 C 10,0 C 8,9 C 90 % 0 lf 1022,2 hPa 0,0 l/m 0 min 0 min 28 W/m 14,6 km/h (3 Bft) 93,48 %
01.11.2017 08:52 9,7 C 10,0 C 8,9 C 90 % 0 lf 1022,2 hPa 0,0 l/m 0 min 0 min 30 W/m 16,7 km/h (3 Bft) 95,74 %
01.11.2017 08:54 9,7 C 10,0 C 8,9 C 90 % 0 lf 1022,1 hPa 0,0 l/m 0 min 0 min 44 W/m 16,7 km/h (3 Bft) 95,74 %
01.11.2017 08:56 9,7 C 10,0 C 8,9 C 90 % 0 lf 1022,2 hPa 0,0 l/m 0 min 0 min 44 W/m 14,6 km/h (3 Bft) 95,74 %
01.11.2017 08:58 9,7 C 10,0 C 8,9 C 90 % 0 lf 1022,2 hPa 0,0 l/m 0 min 0 min 40 W/m 16,7 km/h (3 Bft) 95,74 %
01.11.2017 09:00 9,7 C 10,0 C 8,9 C 90 % 0 lf 1022,2 hPa 0,0 l/m 0 min 0 min 43 W/m 16,7 km/h (3 Bft) 95,74 %
01.11.2017 09:02 9,7 C 10,0 C 8,9 C 90 % 0 lf 1022,1 hPa 0,0 l/m 0 min 0 min 43 W/m 16,7 km/h (3 Bft) 91,30 %
01.11.2017 09:04 9,7 C 10,0 C 8,9 C 90 % 0 lf 1022,2 hPa 0,0 l/m 0 min 0 min 50 W/m 14,6 km/h (3 Bft) 95,74 %
01.11.2017 09:06 9,7 C 10,0 C 9,4 C 90 % 0 lf 1022,2 hPa 0,0 l/m 0 min 0 min 58 W/m 12,6 km/h (3 Bft) 93,62 %
01.11.2017 09:08 9,7 C 10,0 C 9,4 C 90 % 0 lf 1022,2 hPa 0,0 l/m 0 min 0 min 60 W/m 12,6 km/h (3 Bft) 95,74 %
01.11.2017 09:10 9,7 C 10,0 C 9,4 C 90 % 0 lf 1022,1 hPa 0,0 l/m 0 min 0 min 65 W/m 10,5 km/h (2 Bft) 95,74 %
01.11.2017 09:12 9,7 C 10,6 C 9,4 C 90 % 0 lf 1022,1 hPa 0,0 l/m 0 min 0 min 70 W/m 8,4 km/h (2 Bft) 95,74 %
01.11.2017 09:14 9,7 C 10,6 C 9,4 C 90 % 0 lf 1022,1 hPa 0,0 l/m 0 min 0 min 72 W/m 14,6 km/h (3 Bft) 97,83 %
01.11.2017 09:16 9,7 C 10,6 C 9,4 C 90 % 0 lf 1022,2 hPa 0,0 l/m 0 min 0 min 81 W/m 14,6 km/h (3 Bft) 95,74 %
01.11.2017 09:18 9,7 C 10,6 C 9,4 C 90 % 0 lf 1022,1 hPa 0,0 l/m 0 min 0 min 81 W/m 18,8 km/h (3 Bft) 97,87 %
01.11.2017 09:20 9,7 C 10,6 C 9,4 C 90 % 0 lf 1022,1 hPa 0,0 l/m 0 min 0 min 84 W/m 16,7 km/h (3 Bft) 97,87 %
01.11.2017 09:22 9,8 C 10,6 C 9,4 C 90 % 0 lf 1022,2 hPa 0,0 l/m 0 min 0 min 95 W/m 18,8 km/h (3 Bft) 97,87 %
01.11.2017 09:24 9,8 C 10,6 C 9,4 C 90 % 0 lf 1022,2 hPa 0,0 l/m 0 min 0 min 99 W/m 18,8 km/h (3 Bft) 95,74 %
01.11.2017 09:26 9,8 C 10,6 C 10,0 C 90 % 0 lf 1022,1 hPa 0,0 l/m 0 min 0 min 88 W/m 14,6 km/h (3 Bft) 97,83 %
01.11.2017 09:28 9,8 C 10,6 C 10,0 C 90 % 0 lf 1022,1 hPa 0,0 l/m 0 min 0 min 79 W/m 12,6 km/h (3 Bft) 95,74 %
01.11.2017 09:30 9,9 C 10,6 C 10,0 C 90 % 0 lf 1022,1 hPa 0,0 l/m 0 min 0 min 62 W/m 14,6 km/h (3 Bft) 95,74 %
01.11.2017 09:32 9,9 C 10,6 C 9,4 C 90 % 0 lf 1022,2 hPa 0,0 l/m 0 min 0 min 62 W/m 16,7 km/h (3 Bft) 97,87 %
01.11.2017 09:34 9,9 C 10,6 C 9,4 C 89 % 0 lf 1022,2 hPa 0,0 l/m 0 min 0 min 61 W/m 12,6 km/h (3 Bft) 100,00 %
01.11.2017 09:36 9,9 C 10,6 C 9,4 C 89 % 0 lf 1022,2 hPa 0,0 l/m 0 min 0 min 65 W/m 14,6 km/h (3 Bft) 100,00 %
01.11.2017 09:38 9,9 C 10,6 C 9,4 C 89 % 0 lf 1022,2 hPa 0,0 l/m 0 min 0 min 73 W/m 14,6 km/h (3 Bft) 97,83 %
01.11.2017 09:40 9,9 C 10,6 C 10,0 C 89 % 0 lf 1022,2 hPa 0,0 l/m 0 min 0 min 88 W/m 14,6 km/h (3 Bft) 100,00 %
01.11.2017 09:42 9,9 C 10,6 C 10,0 C 89 % 0 lf 1022,2 hPa 0,0 l/m 0 min 0 min 95 W/m 14,6 km/h (3 Bft) 100,00 %
01.11.2017 09:44 10,0 C 11,1 C 10,0 C 89 % 0 lf 1022,2 hPa 0,0 l/m 0 min 0 min 107 W/m 14,6 km/h (3 Bft) 97,87 %
01.11.2017 09:46 10,0 C 11,1 C 10,0 C 89 % 0 lf 1022,1 hPa 0,0 l/m 0 min 0 min 110 W/m 20,9 km/h (4 Bft) 100,00 %
01.11.2017 09:48 10,0 C 11,1 C 10,0 C 89 % 0 lf 1022,0 hPa 0,0 l/m 0 min 0 min 119 W/m 10,5 km/h (2 Bft) 97,87 %
01.11.2017 09:50 10,1 C 11,1 C 10,0 C 89 % 0 lf 1022,0 hPa 0,0 l/m 0 min 0 min 115 W/m 16,7 km/h (3 Bft) 100,00 %
01.11.2017 09:52 10,1 C 11,1 C 10,0 C 89 % 0 lf 1022,1 hPa 0,0 l/m 0 min 0 min 110 W/m 16,7 km/h (3 Bft) 100,00 %
01.11.2017 09:54 10,1 C 11,1 C 10,6 C 89 % 0 lf 1022,1 hPa 0,0 l/m 0 min 0 min 131 W/m 18,8 km/h (3 Bft) 100,00 %
01.11.2017 09:56 10,1 C 11,1 C 10,6 C 89 % 0 lf 1022,1 hPa 0,0 l/m 2 min 0 min 150 W/m 16,7 km/h (3 Bft) 97,87 %
01.11.2017 09:58 10,2 C 11,7 C 10,6 C 89 % 0 lf 1022,1 hPa 0,0 l/m 2 min 0 min 174 W/m 14,6 km/h (3 Bft) 100,00 %
01.11.2017 10:00 10,2 C 11,1 C 10,6 C 89 % 0 lf 1022,2 hPa 0,0 l/m 2 min 0 min 172 W/m 23,0 km/h (4 Bft) 97,87 %
01.11.2017 10:02 10,2 C 11,7 C 10,6 C 89 % 0 lf 1022,2 hPa 0,0 l/m 2 min 0 min 160 W/m 16,7 km/h (3 Bft) 100,00 %
01.11.2017 10:04 10,3 C 11,7 C 10,6 C 89 % 0 lf 1022,1 hPa 0,0 l/m 0 min 0 min 148 W/m 12,6 km/h (3 Bft) 93,62 %
01.11.2017 10:06 10,3 C 11,7 C 10,6 C 89 % 0 lf 1022,1 hPa 0,0 l/m 0 min 0 min 139 W/m 18,8 km/h (3 Bft) 95,74 %
01.11.2017 10:08 10,3 C 11,1 C 10,6 C 89 % 0 lf 1022,2 hPa 0,0 l/m 0 min 0 min 135 W/m 18,8 km/h (3 Bft) 100,00 %
01.11.2017 10:10 10,3 C 11,7 C 10,6 C 89 % 0 lf 1022,1 hPa 0,0 l/m 0 min 0 min 140 W/m 20,9 km/h (4 Bft) 100,00 %
01.11.2017 10:12 10,3 C 11,1 C 10,6 C 89 % 0 lf 1022,1 hPa 0,0 l/m 0 min 0 min 98 W/m 23,0 km/h (4 Bft) 95,65 %
01.11.2017 10:14 10,3 C 11,1 C 10,0 C 88 % 0 lf 1022,1 hPa 0,0 l/m 0 min 0 min 83 W/m 18,8 km/h (3 Bft) 95,74 %
01.11.2017 10:16 10,3 C 10,6 C 10,0 C 88 % 0 lf 1022,1 hPa 0,0 l/m 0 min 0 min 61 W/m 18,8 km/h (3 Bft) 97,87 %
01.11.2017 10:18 10,3 C 10,6 C 10,0 C 88 % 0 lf 1022,1 hPa 0,0 l/m 0 min 0 min 73 W/m 20,9 km/h (4 Bft) 95,74 %
01.11.2017 10:20 10,3 C 10,6 C 10,0 C 88 % 0 lf 1022,0 hPa 0,0 l/m 0 min 0 min 106 W/m 16,7 km/h (3 Bft) 97,87 %
01.11.2017 10:22 10,3 C 11,1 C 10,0 C 88 % 0 lf 1021,9 hPa 0,0 l/m 0 min 0 min 121 W/m 14,6 km/h (3 Bft) 95,74 %
01.11.2017 10:24 10,3 C 11,1 C 10,0 C 88 % 0 lf 1022,0 hPa 0,0 l/m 0 min 0 min 126 W/m 16,7 km/h (3 Bft) 93,48 %
01.11.2017 10:26 10,3 C 11,1 C 10,6 C 88 % 0 lf 1021,9 hPa 0,0 l/m 0 min 0 min 138 W/m 14,6 km/h (3 Bft) 95,74 %
01.11.2017 10:28 10,3 C 11,7 C 10,6 C 89 % 0 lf 1021,9 hPa 0,0 l/m 0 min 0 min 135 W/m 14,6 km/h (3 Bft) 93,62 %
01.11.2017 10:30 10,4 C 11,7 C 10,6 C 89 % 0 lf 1021,9 hPa 0,0 l/m 0 min 0 min 135 W/m 18,8 km/h (3 Bft) 95,74 %
01.11.2017 10:32 10,4 C 11,7 C 10,6 C 89 % 0 lf 1021,9 hPa 0,0 l/m 0 min 0 min 130 W/m 20,9 km/h (4 Bft) 93,62 %
01.11.2017 10:34 10,4 C 11,1 C 10,6 C 89 % 0 lf 1022,0 hPa 0,0 l/m 0 min 0 min 115 W/m 18,8 km/h (3 Bft) 93,62 %
01.11.2017 10:36 10,4 C 11,1 C 10,6 C 89 % 0 lf 1022,0 hPa 0,0 l/m 0 min 0 min 118 W/m 25,1 km/h (4 Bft) 93,48 %
01.11.2017 10:38 10,4 C 11,1 C 10,6 C 89 % 0 lf 1022,0 hPa 0,0 l/m 0 min 0 min 134 W/m 18,8 km/h (3 Bft) 95,74 %
01.11.2017 10:40 10,4 C 11,1 C 10,6 C 89 % 0 lf 1022,0 hPa 0,0 l/m 0 min 0 min 143 W/m 16,7 km/h (3 Bft) 95,74 %
01.11.2017 10:42 10,4 C 11,7 C 10,6 C 89 % 0 lf 1022,0 hPa 0,0 l/m 0 min 0 min 151 W/m 18,8 km/h (3 Bft) 93,62 %
01.11.2017 10:44 10,4 C 11,7 C 10,6 C 89 % 0 lf 1022,0 hPa 0,0 l/m 0 min 0 min 146 W/m 27,2 km/h (4 Bft) 95,74 %
01.11.2017 10:46 10,4 C 11,7 C 10,6 C 89 % 0 lf 1022,0 hPa 0,0 l/m 0 min 0 min 132 W/m 18,8 km/h (3 Bft) 95,74 %
01.11.2017 10:48 10,4 C 11,7 C 10,6 C 89 % 0 lf 1022,0 hPa 0,0 l/m 0 min 0 min 143 W/m 20,9 km/h (4 Bft) 95,65 %
01.11.2017 10:50 10,4 C 11,7 C 10,6 C 89 % 0 lf 1022,0 hPa 0,0 l/m 0 min 0 min 150 W/m 23,0 km/h (4 Bft) 97,87 %
01.11.2017 10:52 10,5 C 11,7 C 11,1 C 89 % 0 lf 1022,0 hPa 0,0 l/m 0 min 0 min 162 W/m 14,6 km/h (3 Bft) 95,74 %
01.11.2017 10:54 10,5 C 11,7 C 11,1 C 89 % 0 lf 1022,0 hPa 0,0 l/m 0 min 0 min 182 W/m 16,7 km/h (3 Bft) 97,87 %
01.11.2017 10:56 10,5 C 12,2 C 11,1 C 89 % 0 lf 1021,9 hPa 0,0 l/m 0 min 0 min 184 W/m 20,9 km/h (4 Bft) 97,87 %
01.11.2017 10:58 10,6 C 12,2 C 11,1 C 89 % 0 lf 1021,9 hPa 0,0 l/m 0 min 0 min 175 W/m 16,7 km/h (3 Bft) 95,74 %
01.11.2017 11:00 10,6 C 12,8 C 11,1 C 89 % 0 lf 1021,9 hPa 0,0 l/m 0 min 0 min 184 W/m 16,7 km/h (3 Bft) 97,87 %
01.11.2017 11:02 10,6 C 13,3 C 11,7 C 89 % 0 lf 1022,0 hPa 0,0 l/m 2 min 0 min 207 W/m 12,6 km/h (3 Bft) 97,83 %
01.11.2017 11:04 10,6 C 13,3 C 11,7 C 89 % 0 lf 1022,0 hPa 0,0 l/m 2 min 0 min 204 W/m 18,8 km/h (3 Bft) 97,87 %
01.11.2017 11:06 10,7 C 13,3 C 11,7 C 89 % 0 lf 1021,9 hPa 0,0 l/m 0 min 0 min 185 W/m 16,7 km/h (3 Bft) 97,87 %
01.11.2017 11:08 10,7 C 12,8 C 11,1 C 89 % 0 lf 1021,9 hPa 0,0 l/m 2 min 0 min 234 W/m 20,9 km/h (4 Bft) 95,74 %
01.11.2017 11:10 10,8 C 12,8 C 11,1 C 89 % 0 lf 1021,9 hPa 0,0 l/m 2 min 0 min 200 W/m 18,8 km/h (3 Bft) 87,23 %
01.11.2017 11:12 10,8 C 12,8 C 11,1 C 89 % 0 lf 1021,9 hPa 0,0 l/m 0 min 0 min 180 W/m 18,8 km/h (3 Bft) 95,65 %
01.11.2017 11:14 10,8 C 13,9 C 11,1 C 89 % 0 lf 1021,9 hPa 0,0 l/m 2 min 0 min 230 W/m 20,9 km/h (4 Bft) 95,74 %
01.11.2017 11:16 10,8 C 13,9 C 11,1 C 89 % 0 lf 1021,9 hPa 0,0 l/m 2 min 0 min 270 W/m 18,8 km/h (3 Bft) 93,62 %
01.11.2017 11:18 10,9 C 14,4 C 11,1 C 89 % 0 lf 1021,9 hPa 0,0 l/m 2 min 0 min 247 W/m 23,0 km/h (4 Bft) 97,87 %
01.11.2017 11:20 10,9 C 13,9 C 11,1 C 89 % 0 lf 1021,9 hPa 0,0 l/m 2 min 0 min 208 W/m 18,8 km/h (3 Bft) 97,87 %
01.11.2017 11:22 10,9 C 12,8 C 11,1 C 88 % 0 lf 1021,8 hPa 0,0 l/m 0 min 0 min 176 W/m 23,0 km/h (4 Bft) 95,74 %
01.11.2017 11:24 10,9 C 13,9 C 11,1 C 88 % 0 lf 1021,9 hPa 0,0 l/m 2 min 0 min 256 W/m 20,9 km/h (4 Bft) 95,65 %
01.11.2017 11:26 11,0 C 13,9 C 11,7 C 88 % 0 lf 1021,9 hPa 0,0 l/m 2 min 0 min 279 W/m 23,0 km/h (4 Bft) 93,62 %
01.11.2017 11:28 11,0 C 13,9 C 11,7 C 88 % 0 lf 1021,9 hPa 0,0 l/m 2 min 0 min 259 W/m 25,1 km/h (4 Bft) 97,87 %
01.11.2017 11:30 11,1 C 15,6 C 11,7 C 88 % 0 lf 1021,8 hPa 0,0 l/m 2 min 0 min 261 W/m 18,8 km/h (3 Bft) 97,87 %
01.11.2017 11:32 11,2 C 15,6 C 11,7 C 89 % 0 lf 1021,8 hPa 0,0 l/m 2 min 0 min 374 W/m 23,0 km/h (4 Bft) 93,62 %
01.11.2017 11:34 11,2 C 16,7 C 11,7 C 88 % 0 lf 1021,8 hPa 0,0 l/m 2 min 0 min 376 W/m 18,8 km/h (3 Bft) 95,65 %
01.11.2017 11:36 11,3 C 17,2 C 11,7 C 89 % 0 lf 1021,8 hPa 0,0 l/m 2 min 0 min 365 W/m 16,7 km/h (3 Bft) 95,74 %
01.11.2017 11:38 11,4 C 18,3 C 11,7 C 88 % 0 lf 1021,8 hPa 0,0 l/m 2 min 0 min 359 W/m 18,8 km/h (3 Bft) 97,87 %
01.11.2017 11:40 11,4 C 18,3 C 11,7 C 88 % 0 lf 1021,8 hPa 0,0 l/m 2 min 0 min 370 W/m 23,0 km/h (4 Bft) 97,87 %
01.11.2017 11:42 11,5 C 18,9 C 11,7 C 88 % 0 lf 1021,8 hPa 0,0 l/m 2 min 0 min 371 W/m 14,6 km/h (3 Bft) 95,74 %
01.11.2017 11:44 11,6 C 20,0 C 11,7 C 88 % 0 lf 1021,7 hPa 0,0 l/m 2 min 0 min 361 W/m 23,0 km/h (4 Bft) 91,49 %
01.11.2017 11:46 11,7 C 20,0 C 11,7 C 87 % 0 lf 1021,7 hPa 0,0 l/m 2 min 0 min 350 W/m 16,7 km/h (3 Bft) 97,83 %
01.11.2017 11:48 11,7 C 18,9 C 11,7 C 87 % 0 lf 1021,7 hPa 0,0 l/m 2 min 0 min 363 W/m 14,6 km/h (3 Bft) 95,74 %
01.11.2017 11:50 11,8 C 19,4 C 11,7 C 87 % 0 lf 1021,6 hPa 0,0 l/m 2 min 0 min 380 W/m 10,5 km/h (2 Bft) 97,87 %
01.11.2017 11:52 11,9 C 20,0 C 11,7 C 86 % 0 lf 1021,6 hPa 0,0 l/m 2 min 0 min 381 W/m 10,5 km/h (2 Bft) 95,74 %
01.11.2017 11:54 12,0 C 20,6 C 11,7 C 86 % 0 lf 1021,5 hPa 0,0 l/m 2 min 0 min 375 W/m 12,6 km/h (3 Bft) 97,87 %
01.11.2017 11:56 12,1 C 20,0 C 11,7 C 86 % 0 lf 1021,5 hPa 0,0 l/m 2 min 0 min 366 W/m 12,6 km/h (3 Bft) 93,62 %
01.11.2017 11:58 12,2 C 21,7 C 11,7 C 86 % 0 lf 1021,5 hPa 0,0 l/m 2 min 0 min 360 W/m 12,6 km/h (3 Bft) 97,83 %
01.11.2017 12:00 12,3 C 21,1 C 11,7 C 85 % 0 lf 1021,5 hPa 0,0 l/m 2 min 0 min 365 W/m 14,6 km/h (3 Bft) 95,74 %
01.11.2017 12:02 12,4 C 22,2 C 12,2 C 85 % 0 lf 1021,5 hPa 0,0 l/m 2 min 0 min 369 W/m 14,6 km/h (3 Bft) 97,87 %
01.11.2017 12:04 12,4 C 22,8 C 12,2 C 84 % 0 lf 1021,4 hPa 0,0 l/m 2 min 0 min 366 W/m 16,7 km/h (3 Bft) 95,74 %
01.11.2017 12:06 12,5 C 21,1 C 11,7 C 84 % 0 lf 1021,5 hPa 0,0 l/m 2 min 0 min 368 W/m 20,9 km/h (4 Bft) 95,74 %
01.11.2017 12:10 12,7 C 20,6 C 11,7 C 82 % 0 lf 1021,4 hPa 0,0 l/m 4 min 0 min 372 W/m 18,8 km/h (3 Bft) 97,59 %
01.11.2017 12:12 12,7 C 20,6 C 11,7 C 82 % 0 lf 1021,4 hPa 0,0 l/m 2 min 0 min 373 W/m 14,6 km/h (3 Bft) 97,87 %
01.11.2017 12:14 12,8 C 20,6 C 12,2 C 81 % 0 lf 1021,3 hPa 0,0 l/m 2 min 0 min 372 W/m 12,6 km/h (3 Bft) 97,87 %
01.11.2017 12:16 12,9 C 21,1 C 12,2 C 81 % 0 lf 1021,3 hPa 0,0 l/m 2 min 0 min 373 W/m 18,8 km/h (3 Bft) 98,00 %
01.11.2017 12:18 13,0 C 21,1 C 11,7 C 81 % 0 lf 1021,3 hPa 0,0 l/m 2 min 0 min 373 W/m 16,7 km/h (3 Bft) 95,74 %
01.11.2017 12:20 13,1 C 21,7 C 12,2 C 80 % 0 lf 1021,3 hPa 0,0 l/m 2 min 0 min 368 W/m 16,7 km/h (3 Bft) 97,87 %
01.11.2017 12:22 13,1 C 21,1 C 11,7 C 80 % 0 lf 1021,3 hPa 0,0 l/m 2 min 0 min 367 W/m 16,7 km/h (3 Bft) 95,74 %
01.11.2017 12:24 13,2 C 21,7 C 12,2 C 80 % 0 lf 1021,3 hPa 0,0 l/m 2 min 0 min 370 W/m 10,5 km/h (2 Bft) 97,83 %
01.11.2017 12:26 13,3 C 22,2 C 12,2 C 80 % 0 lf 1021,3 hPa 0,0 l/m 2 min 0 min 368 W/m 14,6 km/h (3 Bft) 97,87 %
01.11.2017 12:28 13,3 C 21,1 C 12,2 C 79 % 0 lf 1021,3 hPa 0,0 l/m 2 min 0 min 364 W/m 16,7 km/h (3 Bft) 95,74 %
01.11.2017 12:30 13,4 C 21,7 C 12,2 C 79 % 0 lf 1021,2 hPa 0,0 l/m 2 min 0 min 363 W/m 10,5 km/h (2 Bft) 97,87 %
01.11.2017 12:32 13,4 C 21,7 C 12,2 C 79 % 0 lf 1021,2 hPa 0,0 l/m 2 min 0 min 359 W/m 14,6 km/h (3 Bft) 95,74 %
01.11.2017 12:34 13,5 C 22,2 C 12,2 C 79 % 0 lf 1021,2 hPa 0,0 l/m 2 min 0 min 362 W/m 14,6 km/h (3 Bft) 95,74 %
01.11.2017 12:36 13,6 C 22,2 C 12,2 C 78 % 0 lf 1021,1 hPa 0,0 l/m 2 min 0 min 341 W/m 10,5 km/h (2 Bft) 97,83 %
01.11.2017 12:38 13,7 C 22,2 C 12,2 C 78 % 0 lf 1021,1 hPa 0,0 l/m 2 min 0 min 356 W/m 18,8 km/h (3 Bft) 97,87 %
01.11.2017 12:40 13,7 C 21,7 C 12,2 C 77 % 0 lf 1021,1 hPa 0,0 l/m 2 min 0 min 363 W/m 14,6 km/h (3 Bft) 97,87 %
01.11.2017 12:42 13,7 C 22,2 C 12,2 C 77 % 0 lf 1021,1 hPa 0,0 l/m 2 min 0 min 365 W/m 14,6 km/h (3 Bft) 95,74 %
01.11.2017 12:44 13,8 C 21,1 C 12,2 C 77 % 0 lf 1021,1 hPa 0,0 l/m 2 min 0 min 365 W/m 14,6 km/h (3 Bft) 97,87 %
01.11.2017 12:46 13,8 C 21,1 C 12,2 C 77 % 0 lf 1020,9 hPa 0,0 l/m 2 min 0 min 363 W/m 10,5 km/h (2 Bft) 95,65 %
01.11.2017 12:48 13,9 C 22,2 C 12,2 C 77 % 0 lf 1020,9 hPa 0,0 l/m 2 min 0 min 360 W/m 12,6 km/h (3 Bft) 97,87 %
01.11.2017 12:50 13,9 C 21,1 C 12,2 C 76 % 0 lf 1020,9 hPa 0,0 l/m 2 min 0 min 359 W/m 10,5 km/h (2 Bft) 95,74 %
01.11.2017 12:52 13,9 C 19,4 C 12,2 C 76 % 0 lf 1020,9 hPa 0,0 l/m 2 min 0 min 355 W/m 16,7 km/h (3 Bft) 95,74 %
01.11.2017 12:54 13,9 C 19,4 C 12,2 C 76 % 0 lf 1020,9 hPa 0,0 l/m 2 min 0 min 349 W/m 14,6 km/h (3 Bft) 95,74 %
01.11.2017 12:56 14,0 C 20,6 C 12,2 C 76 % 0 lf 1020,8 hPa 0,0 l/m 2 min 0 min 350 W/m 12,6 km/h (3 Bft) 91,49 %
01.11.2017 12:58 14,1 C 20,6 C 12,2 C 76 % 0 lf 1020,8 hPa 0,0 l/m 2 min 0 min 346 W/m 12,6 km/h (3 Bft) 93,62 %
01.11.2017 13:00 14,1 C 20,6 C 12,2 C 76 % 0 lf 1020,9 hPa 0,0 l/m 2 min 0 min 349 W/m 20,9 km/h (4 Bft) 93,48 %
01.11.2017 13:02 14,1 C 20,6 C 12,2 C 75 % 0 lf 1020,8 hPa 0,0 l/m 2 min 0 min 348 W/m 14,6 km/h (3 Bft) 91,49 %
01.11.2017 13:04 14,2 C 20,6 C 12,2 C 76 % 0 lf 1020,7 hPa 0,0 l/m 2 min 0 min 344 W/m 16,7 km/h (3 Bft) 91,49 %
01.11.2017 13:06 14,2 C 21,1 C 12,2 C 76 % 0 lf 1020,7 hPa 0,0 l/m 2 min 0 min 339 W/m 12,6 km/h (3 Bft) 89,36 %
01.11.2017 13:08 14,2 C 21,1 C 12,2 C 76 % 0 lf 1020,7 hPa 0,0 l/m 2 min 0 min 330 W/m 16,7 km/h (3 Bft) 93,62 %
01.11.2017 13:10 14,2 C 21,7 C 12,2 C 76 % 0 lf 1020,7 hPa 0,0 l/m 2 min 0 min 330 W/m 14,6 km/h (3 Bft) 93,48 %
01.11.2017 13:12 14,2 C 21,7 C 12,8 C 76 % 0 lf 1020,6 hPa 0,0 l/m 2 min 0 min 328 W/m 12,6 km/h (3 Bft) 95,74 %
01.11.2017 13:14 14,2 C 21,7 C 12,8 C 76 % 0 lf 1020,7 hPa 0,0 l/m 2 min 0 min 315 W/m 14,6 km/h (3 Bft) 93,62 %
01.11.2017 13:16 14,2 C 21,1 C 12,8 C 76 % 0 lf 1020,6 hPa 0,0 l/m 2 min 0 min 307 W/m 14,6 km/h (3 Bft) 93,62 %
01.11.2017 13:18 14,3 C 21,7 C 12,8 C 76 % 0 lf 1020,5 hPa 0,0 l/m 2 min 0 min 314 W/m 10,5 km/h (2 Bft) 93,62 %
01.11.2017 13:20 14,3 C 22,8 C 12,8 C 76 % 0 lf 1020,6 hPa 0,0 l/m 2 min 0 min 325 W/m 14,6 km/h (3 Bft) 93,62 %
01.11.2017 13:22 14,4 C 21,7 C 12,8 C 76 % 0 lf 1020,5 hPa 0,0 l/m 2 min 0 min 334 W/m 10,5 km/h (2 Bft) 93,48 %
01.11.2017 13:24 14,4 C 22,8 C 12,8 C 76 % 0 lf 1020,5 hPa 0,0 l/m 2 min 0 min 335 W/m 10,5 km/h (2 Bft) 93,62 %
01.11.2017 13:26 14,5 C 22,8 C 12,8 C 76 % 0 lf 1020,5 hPa 0,0 l/m 2 min 0 min 332 W/m 10,5 km/h (2 Bft) 95,74 %
01.11.2017 13:28 14,5 C 23,3 C 12,8 C 75 % 0 lf 1020,4 hPa 0,0 l/m 2 min 0 min 330 W/m 12,6 km/h (3 Bft) 95,74 %
01.11.2017 13:30 14,6 C 22,2 C 12,8 C 75 % 0 lf 1020,4 hPa 0,0 l/m 2 min 0 min 330 W/m 12,6 km/h (3 Bft) 91,49 %
01.11.2017 13:32 14,6 C 22,2 C 12,8 C 75 % 0 lf 1020,5 hPa 0,0 l/m 2 min 0 min 329 W/m 10,5 km/h (2 Bft) 97,87 %
01.11.2017 13:34 14,7 C 22,8 C 12,8 C 74 % 0 lf 1020,4 hPa 0,0 l/m 2 min 0 min 314 W/m 10,5 km/h (2 Bft) 97,83 %
01.11.2017 13:36 14,7 C 20,6 C 12,8 C 74 % 0 lf 1020,4 hPa 0,0 l/m 2 min 0 min 317 W/m 14,6 km/h (3 Bft) 97,87 %
01.11.2017 13:38 14,7 C 21,1 C 12,8 C 74 % 0 lf 1020,4 hPa 0,0 l/m 2 min 0 min 316 W/m 14,6 km/h (3 Bft) 95,74 %
01.11.2017 13:40 14,7 C 20,0 C 12,8 C 73 % 0 lf 1020,3 hPa 0,0 l/m 2 min 0 min 312 W/m 16,7 km/h (3 Bft) 93,62 %
01.11.2017 13:42 14,7 C 19,4 C 12,8 C 73 % 0 lf 1020,2 hPa 0,0 l/m 2 min 0 min 312 W/m 16,7 km/h (3 Bft) 91,49 %
01.11.2017 13:44 14,7 C 20,6 C 12,8 C 74 % 0 lf 1020,3 hPa 0,0 l/m 2 min 0 min 315 W/m 14,6 km/h (3 Bft) 93,62 %
01.11.2017 13:46 14,7 C 21,1 C 12,8 C 74 % 0 lf 1020,3 hPa 0,0 l/m 2 min 0 min 318 W/m 14,6 km/h (3 Bft) 93,48 %
01.11.2017 13:48 14,7 C 20,0 C 12,8 C 73 % 0 lf 1020,2 hPa 0,0 l/m 2 min 0 min 306 W/m 14,6 km/h (3 Bft) 93,62 %
01.11.2017 13:50 14,7 C 20,6 C 12,8 C 74 % 0 lf 1020,2 hPa 0,0 l/m 2 min 0 min 287 W/m 18,8 km/h (3 Bft) 91,49 %
01.11.2017 13:52 14,7 C 20,0 C 12,8 C 74 % 0 lf 1020,1 hPa 0,0 l/m 2 min 0 min 293 W/m 12,6 km/h (3 Bft) 95,74 %
01.11.2017 13:54 14,8 C 20,0 C 12,8 C 74 % 0 lf 1020,1 hPa 0,0 l/m 2 min 0 min 285 W/m 12,6 km/h (3 Bft) 95,74 %
01.11.2017 13:56 14,8 C 19,4 C 12,8 C 74 % 0 lf 1020,1 hPa 0,0 l/m 2 min 0 min 308 W/m 16,7 km/h (3 Bft) 95,74 %
01.11.2017 13:58 14,8 C 18,9 C 12,8 C 74 % 0 lf 1020,1 hPa 0,0 l/m 2 min 0 min 299 W/m 12,6 km/h (3 Bft) 95,65 %
01.11.2017 14:00 14,8 C 17,8 C 12,8 C 74 % 0 lf 1020,1 hPa 0,0 l/m 2 min 0 min 198 W/m 16,7 km/h (3 Bft) 91,49 %
01.11.2017 14:02 14,7 C 17,2 C 12,8 C 74 % 0 lf 1020,1 hPa 0,0 l/m 0 min 0 min 150 W/m 14,6 km/h (3 Bft) 97,87 %
01.11.2017 14:04 14,7 C 16,7 C 12,8 C 73 % 0 lf 1020,1 hPa 0,0 l/m 2 min 0 min 178 W/m 16,7 km/h (3 Bft) 97,87 %
01.11.2017 14:06 14,7 C 16,1 C 12,2 C 73 % 0 lf 1020,1 hPa 0,0 l/m 0 min 0 min 147 W/m 14,6 km/h (3 Bft) 95,74 %
01.11.2017 14:08 14,6 C 16,1 C 12,2 C 73 % 0 lf 1020,1 hPa 0,0 l/m 0 min 0 min 129 W/m 14,6 km/h (3 Bft) 97,87 %
01.11.2017 14:10 14,6 C 16,1 C 12,2 C 74 % 0 lf 1020,0 hPa 0,0 l/m 0 min 0 min 165 W/m 14,6 km/h (3 Bft) 97,83 %
01.11.2017 14:12 14,6 C 15,6 C 12,2 C 73 % 0 lf 1020,0 hPa 0,0 l/m 0 min 0 min 141 W/m 16,7 km/h (3 Bft) 97,87 %
01.11.2017 14:14 14,4 C 16,1 C 12,2 C 74 % 0 lf 1020,0 hPa 0,0 l/m 0 min 0 min 152 W/m 14,6 km/h (3 Bft) 97,87 %
01.11.2017 14:16 14,4 C 17,2 C 12,2 C 74 % 0 lf 1020,0 hPa 0,0 l/m 2 min 0 min 213 W/m 14,6 km/h (3 Bft) 95,74 %
01.11.2017 14:18 14,4 C 17,2 C 12,2 C 74 % 0 lf 1020,0 hPa 0,0 l/m 2 min 0 min 169 W/m 14,6 km/h (3 Bft) 95,74 %
01.11.2017 14:20 14,3 C 17,2 C 12,2 C 74 % 0 lf 1019,9 hPa 0,0 l/m 2 min 0 min 197 W/m 12,6 km/h (3 Bft) 97,87 %
01.11.2017 14:22 14,3 C 16,1 C 12,2 C 74 % 0 lf 1020,0 hPa 0,0 l/m 2 min 0 min 174 W/m 14,6 km/h (3 Bft) 100,00 %
01.11.2017 14:24 14,2 C 16,1 C 12,2 C 74 % 0 lf 1019,9 hPa 0,0 l/m 0 min 0 min 107 W/m 16,7 km/h (3 Bft) 100,00 %
01.11.2017 14:26 14,2 C 16,1 C 12,2 C 74 % 0 lf 1019,8 hPa 0,0 l/m 2 min 0 min 160 W/m 14,6 km/h (3 Bft) 100,00 %
01.11.2017 14:28 14,2 C 16,7 C 12,2 C 74 % 0 lf 1019,8 hPa 0,0 l/m 2 min 0 min 157 W/m 12,6 km/h (3 Bft) 97,87 %
01.11.2017 14:30 14,2 C 16,7 C 12,2 C 74 % 0 lf 1019,8 hPa 0,0 l/m 2 min 0 min 166 W/m 12,6 km/h (3 Bft) 100,00 %
01.11.2017 14:32 14,2 C 17,2 C 12,2 C 74 % 0 lf 1019,8 hPa 0,0 l/m 2 min 0 min 183 W/m 10,5 km/h (2 Bft) 100,00 %
01.11.2017 14:34 14,2 C 17,8 C 12,2 C 74 % 0 lf 1019,8 hPa 0,0 l/m 2 min 0 min 190 W/m 12,6 km/h (3 Bft) 95,74 %
01.11.2017 14:36 14,2 C 17,8 C 12,2 C 74 % 0 lf 1019,8 hPa 0,0 l/m 2 min 0 min 195 W/m 12,6 km/h (3 Bft) 100,00 %
01.11.2017 14:38 14,2 C 17,8 C 12,2 C 74 % 0 lf 1019,7 hPa 0,0 l/m 2 min 0 min 200 W/m 10,5 km/h (2 Bft) 100,00 %
01.11.2017 14:40 14,2 C 18,3 C 12,2 C 74 % 0 lf 1019,7 hPa 0,0 l/m 2 min 0 min 194 W/m 10,5 km/h (2 Bft) 100,00 %
01.11.2017 14:42 14,2 C 18,3 C 12,2 C 74 % 0 lf 1019,7 hPa 0,0 l/m 2 min 0 min 190 W/m 10,5 km/h (2 Bft) 100,00 %
01.11.2017 14:44 14,2 C 17,8 C 12,2 C 74 % 0 lf 1019,7 hPa 0,0 l/m 2 min 0 min 170 W/m 14,6 km/h (3 Bft) 100,00 %
01.11.2017 14:46 14,2 C 17,2 C 12,2 C 74 % 0 lf 1019,6 hPa 0,0 l/m 2 min 0 min 164 W/m 12,6 km/h (3 Bft) 100,00 %
01.11.2017 14:48 14,2 C 17,2 C 12,2 C 74 % 0 lf 1019,7 hPa 0,0 l/m 2 min 0 min 169 W/m 10,5 km/h (2 Bft) 100,00 %
01.11.2017 14:50 14,2 C 17,8 C 12,2 C 74 % 0 lf 1019,7 hPa 0,0 l/m 2 min 0 min 163 W/m 10,5 km/h (2 Bft) 100,00 %
01.11.2017 14:52 14,2 C 17,8 C 12,2 C 74 % 0 lf 1019,7 hPa 0,0 l/m 2 min 0 min 161 W/m 8,4 km/h (2 Bft) 100,00 %
01.11.2017 14:54 14,2 C 17,8 C 12,2 C 74 % 0 lf 1019,6 hPa 0,0 l/m 2 min 0 min 152 W/m 8,4 km/h (2 Bft) 100,00 %
01.11.2017 14:56 14,2 C 17,2 C 12,2 C 74 % 0 lf 1019,6 hPa 0,0 l/m 0 min 0 min 134 W/m 14,6 km/h (3 Bft) 100,00 %
01.11.2017 14:58 14,2 C 16,7 C 12,2 C 74 % 0 lf 1019,6 hPa 0,0 l/m 2 min 0 min 134 W/m 14,6 km/h (3 Bft) 100,00 %
01.11.2017 15:00 14,2 C 16,1 C 12,2 C 73 % 0 lf 1019,6 hPa 0,0 l/m 2 min 0 min 135 W/m 14,6 km/h (3 Bft) 100,00 %
01.11.2017 15:02 14,2 C 16,7 C 12,2 C 73 % 0 lf 1019,6 hPa 0,0 l/m 2 min 0 min 138 W/m 8,4 km/h (2 Bft) 100,00 %
01.11.2017 15:04 14,2 C 17,2 C 12,2 C 73 % 0 lf 1019,5 hPa 0,0 l/m 2 min 0 min 143 W/m 8,4 km/h (2 Bft) 100,00 %
01.11.2017 15:06 14,2 C 16,7 C 12,2 C 73 % 0 lf 1019,5 hPa 0,0 l/m 2 min 0 min 136 W/m 10,5 km/h (2 Bft) 100,00 %
01.11.2017 15:08 14,2 C 16,7 C 12,2 C 73 % 0 lf 1019,5 hPa 0,0 l/m 2 min 0 min 128 W/m 6,3 km/h (2 Bft) 100,00 %
01.11.2017 15:10 14,2 C 16,7 C 12,2 C 73 % 0 lf 1019,5 hPa 0,0 l/m 2 min 0 min 129 W/m 8,4 km/h (2 Bft) 100,00 %
01.11.2017 15:12 14,2 C 16,7 C 12,2 C 73 % 0 lf 1019,5 hPa 0,0 l/m 2 min 0 min 135 W/m 12,6 km/h (3 Bft) 97,87 %
01.11.2017 15:14 14,2 C 16,1 C 12,2 C 73 % 0 lf 1019,5 hPa 0,0 l/m 2 min 0 min 133 W/m 14,6 km/h (3 Bft) 97,87 %
01.11.2017 15:16 14,2 C 16,1 C 12,2 C 73 % 0 lf 1019,6 hPa 0,0 l/m 2 min 0 min 130 W/m 12,6 km/h (3 Bft) 95,74 %
01.11.2017 15:18 14,2 C 15,6 C 12,2 C 73 % 0 lf 1019,5 hPa 0,0 l/m 2 min 0 min 125 W/m 12,6 km/h (3 Bft) 95,74 %
01.11.2017 15:20 14,2 C 15,6 C 12,2 C 73 % 0 lf 1019,6 hPa 0,0 l/m 0 min 0 min 109 W/m 12,6 km/h (3 Bft) 97,83 %
01.11.2017 15:22 14,2 C 15,6 C 12,2 C 72 % 0 lf 1019,5 hPa 0,0 l/m 0 min 0 min 105 W/m 12,6 km/h (3 Bft) 95,74 %
01.11.2017 15:24 14,2 C 15,0 C 12,2 C 73 % 0 lf 1019,5 hPa 0,0 l/m 0 min 0 min 102 W/m 10,5 km/h (2 Bft) 97,87 %
01.11.2017 15:26 14,2 C 15,0 C 12,2 C 73 % 0 lf 1019,5 hPa 0,0 l/m 0 min 0 min 96 W/m 8,4 km/h (2 Bft) 95,74 %
01.11.2017 15:28 14,1 C 15,0 C 11,7 C 73 % 0 lf 1019,4 hPa 0,0 l/m 0 min 0 min 93 W/m 8,4 km/h (2 Bft) 97,87 %
01.11.2017 15:30 14,1 C 14,4 C 11,7 C 73 % 0 lf 1019,4 hPa 0,0 l/m 0 min 0 min 90 W/m 8,4 km/h (2 Bft) 95,74 %
01.11.2017 15:32 14,1 C 14,4 C 11,7 C 73 % 0 lf 1019,4 hPa 0,0 l/m 0 min 0 min 87 W/m 14,6 km/h (3 Bft) 95,65 %
01.11.2017 15:34 14,1 C 13,9 C 11,7 C 73 % 0 lf 1019,4 hPa 0,0 l/m 0 min 0 min 84 W/m 12,6 km/h (3 Bft) 95,74 %
01.11.2017 15:36 14,0 C 13,9 C 11,7 C 73 % 0 lf 1019,3 hPa 0,0 l/m 0 min 0 min 82 W/m 8,4 km/h (2 Bft) 97,87 %
01.11.2017 15:38 14,0 C 13,9 C 11,7 C 73 % 0 lf 1019,3 hPa 0,0 l/m 0 min 0 min 81 W/m 8,4 km/h (2 Bft) 97,87 %
01.11.2017 15:40 14,0 C 13,9 C 11,7 C 73 % 0 lf 1019,3 hPa 0,0 l/m 0 min 0 min 78 W/m 8,4 km/h (2 Bft) 93,62 %
01.11.2017 15:42 13,9 C 13,9 C 11,7 C 73 % 0 lf 1019,3 hPa 0,0 l/m 0 min 0 min 77 W/m 12,6 km/h (3 Bft) 95,65 %
01.11.2017 15:44 13,9 C 13,9 C 11,7 C 73 % 0 lf 1019,3 hPa 0,0 l/m 0 min 0 min 77 W/m 12,6 km/h (3 Bft) 97,87 %
01.11.2017 15:46 13,9 C 13,9 C 11,7 C 73 % 0 lf 1019,3 hPa 0,0 l/m 0 min 0 min 75 W/m 8,4 km/h (2 Bft) 95,74 %
01.11.2017 15:48 13,8 C 13,9 C 11,7 C 73 % 0 lf 1019,3 hPa 0,0 l/m 0 min 0 min 72 W/m 8,4 km/h (2 Bft) 97,87 %
01.11.2017 15:50 13,8 C 13,9 C 11,7 C 73 % 0 lf 1019,3 hPa 0,0 l/m 0 min 0 min 72 W/m 10,5 km/h (2 Bft) 95,74 %
01.11.2017 15:52 13,8 C 13,9 C 11,7 C 73 % 0 lf 1019,3 hPa 0,0 l/m 0 min 0 min 70 W/m 10,5 km/h (2 Bft) 95,74 %
01.11.2017 15:54 13,8 C 13,3 C 11,7 C 73 % 0 lf 1019,2 hPa 0,0 l/m 0 min 0 min 70 W/m 10,5 km/h (2 Bft) 97,87 %
01.11.2017 15:56 13,7 C 13,3 C 11,7 C 73 % 0 lf 1019,2 hPa 0,0 l/m 0 min 0 min 68 W/m 8,4 km/h (2 Bft) 97,83 %
01.11.2017 15:58 13,7 C 13,3 C 11,7 C 73 % 0 lf 1019,2 hPa 0,0 l/m 0 min 0 min 66 W/m 6,3 km/h (2 Bft) 97,87 %
01.11.2017 16:00 13,7 C 13,3 C 11,7 C 73 % 0 lf 1019,2 hPa 0,0 l/m 0 min 0 min 65 W/m 14,6 km/h (3 Bft) 97,87 %
01.11.2017 16:02 13,7 C 13,3 C 11,1 C 73 % 0 lf 1019,1 hPa 0,0 l/m 0 min 0 min 63 W/m 8,4 km/h (2 Bft) 95,74 %
01.11.2017 16:04 13,6 C 13,3 C 11,7 C 73 % 0 lf 1019,1 hPa 0,0 l/m 0 min 0 min 61 W/m 10,5 km/h (2 Bft) 95,74 %
01.11.2017 16:06 13,6 C 13,3 C 11,1 C 73 % 0 lf 1019,0 hPa 0,0 l/m 0 min 0 min 59 W/m 6,3 km/h (2 Bft) 93,48 %
01.11.2017 16:08 13,6 C 13,3 C 11,1 C 73 % 0 lf 1019,0 hPa 0,0 l/m 0 min 0 min 57 W/m 8,4 km/h (2 Bft) 97,87 %
01.11.2017 16:10 13,6 C 13,3 C 11,1 C 73 % 0 lf 1019,0 hPa 0,0 l/m 0 min 0 min 55 W/m 8,4 km/h (2 Bft) 97,87 %
01.11.2017 16:12 13,6 C 13,3 C 11,1 C 73 % 0 lf 1019,1 hPa 0,0 l/m 0 min 0 min 54 W/m 8,4 km/h (2 Bft) 95,74 %
01.11.2017 16:14 13,5 C 13,3 C 11,1 C 73 % 0 lf 1019,1 hPa 0,0 l/m 0 min 0 min 52 W/m 8,4 km/h (2 Bft) 89,36 %
01.11.2017 16:16 13,5 C 13,3 C 11,1 C 73 % 0 lf 1019,1 hPa 0,0 l/m 0 min 0 min 49 W/m 6,3 km/h (2 Bft) 93,62 %
01.11.2017 16:18 13,4 C 12,8 C 10,6 C 74 % 0 lf 1019,1 hPa 0,0 l/m 0 min 0 min 46 W/m 6,3 km/h (2 Bft) 95,65 %
01.11.2017 16:20 13,4 C 12,8 C 10,6 C 74 % 0 lf 1019,0 hPa 0,0 l/m 0 min 0 min 43 W/m 6,3 km/h (2 Bft) 91,49 %
01.11.2017 16:22 13,4 C 12,8 C 10,6 C 74 % 0 lf 1019,0 hPa 0,0 l/m 0 min 0 min 41 W/m 6,3 km/h (2 Bft) 93,62 %
01.11.2017 16:24 13,4 C 12,8 C 10,6 C 74 % 0 lf 1019,0 hPa 0,0 l/m 0 min 0 min 39 W/m 10,5 km/h (2 Bft) 91,49 %
01.11.2017 16:26 13,3 C 12,8 C 10,6 C 74 % 0 lf 1019,0 hPa 0,0 l/m 0 min 0 min 36 W/m 8,4 km/h (2 Bft) 91,49 %
01.11.2017 16:28 13,3 C 12,8 C 10,6 C 74 % 0 lf 1018,9 hPa 0,0 l/m 0 min 0 min 33 W/m 6,3 km/h (2 Bft) 93,62 %
01.11.2017 16:30 13,3 C 12,8 C 10,6 C 74 % 0 lf 1018,9 hPa 0,0 l/m 0 min 0 min 31 W/m 6,3 km/h (2 Bft) 93,48 %
01.11.2017 16:32 13,3 C 12,8 C 10,6 C 74 % 0 lf 1018,9 hPa 0,0 l/m 0 min 0 min 29 W/m 4,2 km/h (1 Bft) 89,36 %
01.11.2017 16:34 13,2 C 12,2 C 10,0 C 74 % 0 lf 1018,9 hPa 0,0 l/m 0 min 0 min 26 W/m 6,3 km/h (2 Bft) 95,74 %
01.11.2017 16:36 13,2 C 12,2 C 10,0 C 74 % 0 lf 1018,9 hPa 0,0 l/m 0 min 0 min 25 W/m 6,3 km/h (2 Bft) 97,87 %
01.11.2017 16:38 13,2 C 12,2 C 10,0 C 74 % 0 lf 1018,9 hPa 0,0 l/m 0 min 0 min 22 W/m 6,3 km/h (2 Bft) 95,74 %
01.11.2017 16:40 13,2 C 12,2 C 10,0 C 74 % 0 lf 1018,9 hPa 0,0 l/m 0 min 0 min 21 W/m 6,3 km/h (2 Bft) 95,74 %
01.11.2017 16:42 13,1 C 12,2 C 10,0 C 74 % 0 lf 1018,9 hPa 0,0 l/m 0 min 0 min 19 W/m 8,4 km/h (2 Bft) 93,48 %
01.11.2017 16:44 13,1 C 12,2 C 10,0 C 75 % 0 lf 1018,9 hPa 0,0 l/m 0 min 0 min 18 W/m 8,4 km/h (2 Bft) 95,74 %
01.11.2017 16:46 13,0 C 11,7 C 9,4 C 75 % 0 lf 1018,9 hPa 0,0 l/m 0 min 0 min 16 W/m 6,3 km/h (2 Bft) 93,62 %
01.11.2017 16:48 13,0 C 11,7 C 9,4 C 75 % 0 lf 1018,8 hPa 0,0 l/m 0 min 0 min 14 W/m 8,4 km/h (2 Bft) 95,74 %
01.11.2017 16:50 12,9 C 11,7 C 9,4 C 75 % 0 lf 1018,9 hPa 0,0 l/m 0 min 0 min 13 W/m 8,4 km/h (2 Bft) 95,74 %
01.11.2017 16:52 12,9 C 11,7 C 9,4 C 75 % 0 lf 1018,9 hPa 0,0 l/m 0 min 0 min 12 W/m 6,3 km/h (2 Bft) 95,65 %
01.11.2017 16:54 12,9 C 11,7 C 9,4 C 75 % 0 lf 1018,9 hPa 0,0 l/m 0 min 0 min 11 W/m 4,2 km/h (1 Bft) 93,62 %
01.11.2017 16:56 12,8 C 11,7 C 8,9 C 75 % 0 lf 1018,9 hPa 0,0 l/m 0 min 0 min 9 W/m 4,2 km/h (1 Bft) 95,74 %
01.11.2017 16:58 12,8 C 11,1 C 8,9 C 75 % 0 lf 1018,9 hPa 0,0 l/m 0 min 0 min 8 W/m 4,2 km/h (1 Bft) 95,74 %
01.11.2017 17:00 12,8 C 11,1 C 8,9 C 75 % 0 lf 1018,9 hPa 0,0 l/m 0 min 0 min 7 W/m 2,1 km/h (1 Bft) 93,62 %
01.11.2017 17:02 12,7 C 11,1 C 8,3 C 75 % 0 lf 1018,8 hPa 0,0 l/m 0 min 0 min 6 W/m 4,2 km/h (1 Bft) 97,87 %
01.11.2017 17:04 12,7 C 10,6 C 8,3 C 75 % 0 lf 1018,8 hPa 0,0 l/m 0 min 0 min 5 W/m 2,1 km/h (1 Bft) 97,83 %
01.11.2017 17:06 12,7 C 10,6 C 8,3 C 75 % 0 lf 1018,8 hPa 0,0 l/m 0 min 0 min 2 W/m 4,2 km/h (1 Bft) 95,74 %
01.11.2017 17:08 12,6 C 10,6 C 8,3 C 76 % 0 lf 1018,8 hPa 0,0 l/m 0 min 0 min 0 W/m 4,2 km/h (1 Bft) 97,87 %
01.11.2017 17:10 12,6 C 10,6 C 8,3 C 76 % 0 lf 1018,7 hPa 0,0 l/m 0 min 0 min 0 W/m 6,3 km/h (2 Bft) 95,74 %
01.11.2017 17:12 12,6 C 11,1 C 8,3 C 76 % 0 lf 1018,7 hPa 0,0 l/m 0 min 0 min 0 W/m 8,4 km/h (2 Bft) 97,87 %
01.11.2017 17:14 12,5 C 10,6 C 7,8 C 76 % 0 lf 1018,7 hPa 0,0 l/m 0 min 0 min 0 W/m 4,2 km/h (1 Bft) 100,00 %
01.11.2017 17:16 12,4 C 10,6 C 7,8 C 77 % 0 lf 1018,6 hPa 0,0 l/m 0 min 0 min 0 W/m 4,2 km/h (1 Bft) 100,00 %
01.11.2017 17:18 12,4 C 10,6 C 7,8 C 77 % 0 lf 1018,6 hPa 0,0 l/m 0 min 0 min 0 W/m 4,2 km/h (1 Bft) 97,83 %
01.11.2017 17:20 12,3 C 10,6 C 7,8 C 77 % 0 lf 1018,6 hPa 0,0 l/m 0 min 0 min 0 W/m 6,3 km/h (2 Bft) 97,87 %
01.11.2017 17:22 12,3 C 10,6 C 7,8 C 77 % 0 lf 1018,5 hPa 0,0 l/m 0 min 0 min 0 W/m 4,2 km/h (1 Bft) 97,87 %
01.11.2017 17:24 12,2 C 10,0 C 7,8 C 77 % 0 lf 1018,6 hPa 0,0 l/m 0 min 0 min 0 W/m 4,2 km/h (1 Bft) 100,00 %
01.11.2017 17:26 12,2 C 10,0 C 7,8 C 77 % 0 lf 1018,6 hPa 0,0 l/m 0 min 0 min 0 W/m 4,2 km/h (1 Bft) 100,00 %
01.11.2017 17:28 12,1 C 10,0 C 7,8 C 77 % 0 lf 1018,5 hPa 0,0 l/m 0 min 0 min 0 W/m 4,2 km/h (1 Bft) 100,00 %
01.11.2017 17:30 12,1 C 10,0 C 7,8 C 77 % 0 lf 1018,5 hPa 0,0 l/m 0 min 0 min 0 W/m 2,1 km/h (1 Bft) 100,00 %
01.11.2017 17:32 12,0 C 10,0 C 7,8 C 78 % 0 lf 1018,6 hPa 0,0 l/m 0 min 0 min 0 W/m 4,2 km/h (1 Bft) 97,87 %
01.11.2017 17:34 11,9 C 10,0 C 7,2 C 78 % 0 lf 1018,5 hPa 0,0 l/m 0 min 0 min 0 W/m 6,3 km/h (2 Bft) 100,00 %
01.11.2017 17:36 11,9 C 10,0 C 7,2 C 78 % 0 lf 1018,5 hPa 0,0 l/m 0 min 0 min 0 W/m 4,2 km/h (1 Bft) 100,00 %
01.11.2017 17:38 11,8 C 10,0 C 7,2 C 79 % 0 lf 1018,4 hPa 0,0 l/m 0 min 0 min 0 W/m 4,2 km/h (1 Bft) 97,87 %
01.11.2017 17:40 11,8 C 10,0 C 7,2 C 79 % 0 lf 1018,4 hPa 0,0 l/m 0 min 0 min 0 W/m 4,2 km/h (1 Bft) 100,00 %
01.11.2017 17:42 11,7 C 9,4 C 7,2 C 79 % 0 lf 1018,4 hPa 0,0 l/m 0 min 0 min 0 W/m 4,2 km/h (1 Bft) 97,87 %
01.11.2017 17:44 11,6 C 9,4 C 7,2 C 80 % 0 lf 1018,4 hPa 0,0 l/m 0 min 0 min 0 W/m 4,2 km/h (1 Bft) 100,00 %
01.11.2017 17:46 11,6 C 9,4 C 7,2 C 80 % 0 lf 1018,4 hPa 0,0 l/m 0 min 0 min 0 W/m 4,2 km/h (1 Bft) 100,00 %
01.11.2017 17:48 11,5 C 9,4 C 7,2 C 80 % 0 lf 1018,4 hPa 0,0 l/m 0 min 0 min 0 W/m 6,3 km/h (2 Bft) 97,87 %
01.11.2017 17:50 11,4 C 9,4 C 7,2 C 80 % 0 lf 1018,3 hPa 0,0 l/m 0 min 0 min 0 W/m 6,3 km/h (2 Bft) 100,00 %
01.11.2017 17:52 11,4 C 9,4 C 7,2 C 81 % 0 lf 1018,3 hPa 0,0 l/m 0 min 0 min 0 W/m 4,2 km/h (1 Bft) 100,00 %
01.11.2017 17:54 11,3 C 9,4 C 7,2 C 80 % 0 lf 1018,3 hPa 0,0 l/m 0 min 0 min 0 W/m 4,2 km/h (1 Bft) 97,87 %
01.11.2017 17:56 11,3 C 9,4 C 7,2 C 81 % 0 lf 1018,3 hPa 0,0 l/m 0 min 0 min 0 W/m 4,2 km/h (1 Bft) 95,74 %
01.11.2017 17:58 11,2 C 9,4 C 7,2 C 81 % 0 lf 1018,3 hPa 0,0 l/m 0 min 0 min 0 W/m 6,3 km/h (2 Bft) 93,62 %
01.11.2017 18:00 11,2 C 9,4 C 7,2 C 81 % 0 lf 1018,3 hPa 0,0 l/m 0 min 0 min 0 W/m 6,3 km/h (2 Bft) 95,74 %
01.11.2017 18:02 11,1 C 9,4 C 7,2 C 81 % 0 lf 1018,3 hPa 0,0 l/m 0 min 0 min 0 W/m 4,2 km/h (1 Bft) 97,87 %
01.11.2017 18:04 11,1 C 9,4 C 7,2 C 81 % 0 lf 1018,3 hPa 0,0 l/m 0 min 0 min 0 W/m 4,2 km/h (1 Bft) 97,83 %
01.11.2017 18:06 11,0 C 9,4 C 7,2 C 81 % 0 lf 1018,4 hPa 0,0 l/m 0 min 0 min 0 W/m 4,2 km/h (1 Bft) 97,87 %
01.11.2017 18:10 10,9 C 9,4 C 7,2 C 81 % 0 lf 1018,4 hPa 0,0 l/m 0 min 0 min 0 W/m 4,2 km/h (1 Bft) 96,81 %
01.11.2017 18:12 10,8 C 9,4 C 7,2 C 82 % 0 lf 1018,3 hPa 0,0 l/m 0 min 0 min 0 W/m 4,2 km/h (1 Bft) 97,87 %
01.11.2017 18:14 10,8 C 9,4 C 7,2 C 82 % 0 lf 1018,4 hPa 0,0 l/m 0 min 0 min 0 W/m 4,2 km/h (1 Bft) 91,49 %
01.11.2017 18:16 10,7 C 9,4 C 7,2 C 82 % 0 lf 1018,3 hPa 0,0 l/m 0 min 0 min 0 W/m 4,2 km/h (1 Bft) 97,83 %
01.11.2017 18:18 10,7 C 9,4 C 7,2 C 82 % 0 lf 1018,3 hPa 0,0 l/m 0 min 0 min 0 W/m 4,2 km/h (1 Bft) 95,74 %
01.11.2017 18:20 10,6 C 9,4 C 7,2 C 82 % 0 lf 1018,3 hPa 0,0 l/m 0 min 0 min 0 W/m 4,2 km/h (1 Bft) 97,87 %
01.11.2017 18:22 10,6 C 9,4 C 7,2 C 82 % 0 lf 1018,3 hPa 0,0 l/m 0 min 0 min 0 W/m 4,2 km/h (1 Bft) 97,87 %
01.11.2017 18:24 10,6 C 9,4 C 7,2 C 82 % 0 lf 1018,3 hPa 0,0 l/m 0 min 0 min 0 W/m 4,2 km/h (1 Bft) 97,87 %
01.11.2017 18:26 10,5 C 9,4 C 7,2 C 82 % 0 lf 1018,3 hPa 0,0 l/m 0 min 0 min 0 W/m 4,2 km/h (1 Bft) 97,83 %
01.11.2017 18:28 10,5 C 9,4 C 7,2 C 82 % 0 lf 1018,3 hPa 0,0 l/m 0 min 0 min 0 W/m 4,2 km/h (1 Bft) 97,87 %
01.11.2017 18:30 10,4 C 9,4 C 7,2 C 83 % 0 lf 1018,3 hPa 0,0 l/m 0 min 0 min 0 W/m 4,2 km/h (1 Bft) 100,00 %
01.11.2017 18:32 10,4 C 9,4 C 7,2 C 83 % 0 lf 1018,3 hPa 0,0 l/m 0 min 0 min 0 W/m 4,2 km/h (1 Bft) 95,74 %
01.11.2017 18:34 10,4 C 9,4 C 7,2 C 83 % 0 lf 1018,3 hPa 0,0 l/m 0 min 0 min 0 W/m 4,2 km/h (1 Bft) 100,00 %
01.11.2017 18:36 10,3 C 9,4 C 7,2 C 83 % 0 lf 1018,3 hPa 0,0 l/m 0 min 0 min 0 W/m 4,2 km/h (1 Bft) 100,00 %
01.11.2017 18:38 10,3 C 9,4 C 7,2 C 83 % 0 lf 1018,3 hPa 0,0 l/m 0 min 0 min 0 W/m 4,2 km/h (1 Bft) 100,00 %
01.11.2017 18:40 10,3 C 9,4 C 7,2 C 83 % 0 lf 1018,3 hPa 0,0 l/m 0 min 0 min 0 W/m 4,2 km/h (1 Bft) 95,74 %
01.11.2017 18:42 10,2 C 9,4 C 7,2 C 83 % 0 lf 1018,3 hPa 0,0 l/m 0 min 0 min 0 W/m 4,2 km/h (1 Bft) 95,74 %
01.11.2017 18:44 10,2 C 9,4 C 7,2 C 83 % 0 lf 1018,3 hPa 0,0 l/m 0 min 0 min 0 W/m 4,2 km/h (1 Bft) 97,87 %
01.11.2017 18:46 10,2 C 9,4 C 7,2 C 83 % 0 lf 1018,2 hPa 0,0 l/m 0 min 0 min 0 W/m 4,2 km/h (1 Bft) 95,74 %
01.11.2017 18:48 10,2 C 8,9 C 7,2 C 83 % 0 lf 1018,3 hPa 0,0 l/m 0 min 0 min 0 W/m 6,3 km/h (2 Bft) 93,62 %
01.11.2017 18:50 10,1 C 8,9 C 7,2 C 84 % 0 lf 1018,2 hPa 0,0 l/m 0 min 0 min 0 W/m 8,4 km/h (2 Bft) 95,65 %
01.11.2017 18:52 10,1 C 8,9 C 7,2 C 84 % 0 lf 1018,2 hPa 0,0 l/m 0 min 0 min 0 W/m 4,2 km/h (1 Bft) 97,87 %
01.11.2017 18:54 10,1 C 8,9 C 7,2 C 84 % 0 lf 1018,2 hPa 0,0 l/m 0 min 0 min 0 W/m 6,3 km/h (2 Bft) 97,87 %
01.11.2017 18:56 10,0 C 8,9 C 7,2 C 84 % 0 lf 1018,2 hPa 0,0 l/m 0 min 0 min 0 W/m 4,2 km/h (1 Bft) 97,87 %
01.11.2017 18:58 10,0 C 8,9 C 7,2 C 84 % 0 lf 1018,2 hPa 0,0 l/m 0 min 0 min 0 W/m 4,2 km/h (1 Bft) 95,74 %
01.11.2017 19:00 9,9 C 8,9 C 7,2 C 84 % 0 lf 1018,2 hPa 0,0 l/m 0 min 0 min 0 W/m 4,2 km/h (1 Bft) 95,74 %
01.11.2017 19:02 9,9 C 8,9 C 6,7 C 84 % 0 lf 1018,2 hPa 0,0 l/m 0 min 0 min 0 W/m 4,2 km/h (1 Bft) 95,65 %
01.11.2017 19:04 9,9 C 8,9 C 6,7 C 84 % 0 lf 1018,2 hPa 0,0 l/m 0 min 0 min 0 W/m 6,3 km/h (2 Bft) 97,87 %
01.11.2017 19:06 9,9 C 8,9 C 6,7 C 84 % 0 lf 1018,1 hPa 0,0 l/m 0 min 0 min 0 W/m 6,3 km/h (2 Bft) 93,62 %
01.11.2017 19:08 9,9 C 8,9 C 6,7 C 85 % 0 lf 1018,0 hPa 0,0 l/m 0 min 0 min 0 W/m 6,3 km/h (2 Bft) 93,62 %
01.11.2017 19:10 9,8 C 8,9 C 6,7 C 85 % 0 lf 1018,0 hPa 0,0 l/m 0 min 0 min 0 W/m 4,2 km/h (1 Bft) 95,74 %
01.11.2017 19:12 9,8 C 8,9 C 6,7 C 85 % 0 lf 1018,0 hPa 0,0 l/m 0 min 0 min 0 W/m 6,3 km/h (2 Bft) 93,62 %
01.11.2017 19:14 9,8 C 8,9 C 6,7 C 85 % 0 lf 1018,0 hPa 0,0 l/m 0 min 0 min 0 W/m 6,3 km/h (2 Bft) 93,48 %
01.11.2017 19:16 9,8 C 8,9 C 6,7 C 85 % 0 lf 1018,0 hPa 0,0 l/m 0 min 0 min 0 W/m 6,3 km/h (2 Bft) 91,49 %
01.11.2017 19:18 9,7 C 8,9 C 6,7 C 86 % 0 lf 1018,0 hPa 0,0 l/m 0 min 0 min 0 W/m 6,3 km/h (2 Bft) 89,36 %
01.11.2017 19:20 9,7 C 8,9 C 6,7 C 86 % 0 lf 1018,0 hPa 0,0 l/m 0 min 0 min 0 W/m 4,2 km/h (1 Bft) 91,49 %
01.11.2017 19:22 9,7 C 8,9 C 6,7 C 86 % 0 lf 1018,0 hPa 0,0 l/m 0 min 0 min 0 W/m 4,2 km/h (1 Bft) 89,36 %
01.11.2017 19:24 9,7 C 9,4 C 6,7 C 86 % 0 lf 1018,0 hPa 0,0 l/m 0 min 0 min 0 W/m 6,3 km/h (2 Bft) 91,49 %
01.11.2017 19:26 9,7 C 9,4 C 6,7 C 86 % 0 lf 1017,9 hPa 0,0 l/m 0 min 0 min 0 W/m 6,3 km/h (2 Bft) 93,48 %
01.11.2017 19:28 9,7 C 8,9 C 7,2 C 86 % 0 lf 1017,9 hPa 0,0 l/m 0 min 0 min 0 W/m 4,2 km/h (1 Bft) 93,62 %
01.11.2017 19:30 9,6 C 8,9 C 7,2 C 86 % 0 lf 1017,9 hPa 0,0 l/m 0 min 0 min 0 W/m 6,3 km/h (2 Bft) 93,62 %
01.11.2017 19:32 9,6 C 8,9 C 7,2 C 86 % 0 lf 1017,8 hPa 0,0 l/m 0 min 0 min 0 W/m 6,3 km/h (2 Bft) 91,49 %
01.11.2017 19:34 9,6 C 8,9 C 7,2 C 86 % 0 lf 1017,8 hPa 0,0 l/m 0 min 0 min 0 W/m 4,2 km/h (1 Bft) 91,49 %
01.11.2017 19:36 9,6 C 8,9 C 6,7 C 86 % 0 lf 1017,7 hPa 0,0 l/m 0 min 0 min 0 W/m 0,0 km/h (0 Bft) 87,23 %
01.11.2017 19:38 9,6 C 8,3 C 7,2 C 86 % 0 lf 1017,7 hPa 0,0 l/m 0 min 0 min 0 W/m 0,0 km/h (0 Bft) 95,65 %
01.11.2017 19:40 9,5 C 8,3 C 7,2 C 86 % 0 lf 1017,7 hPa 0,0 l/m 0 min 0 min 0 W/m 0,0 km/h (0 Bft) 93,62 %
01.11.2017 19:42 9,5 C 8,3 C 7,2 C 86 % 0 lf 1017,7 hPa 0,0 l/m 0 min 0 min 0 W/m 0,0 km/h (0 Bft) 91,49 %
01.11.2017 19:44 9,5 C 8,3 C 6,7 C 86 % 0 lf 1017,6 hPa 0,0 l/m 0 min 0 min 0 W/m 0,0 km/h (0 Bft) 93,62 %
01.11.2017 19:46 9,4 C 8,3 C 7,2 C 86 % 0 lf 1017,6 hPa 0,0 l/m 0 min 0 min 0 W/m 0,0 km/h (0 Bft) 91,49 %
01.11.2017 19:48 9,4 C 8,3 C 6,7 C 86 % 0 lf 1017,6 hPa 0,0 l/m 0 min 0 min 0 W/m 6,3 km/h (2 Bft) 89,13 %
01.11.2017 19:50 9,4 C 8,3 C 6,7 C 86 % 0 lf 1017,5 hPa 0,0 l/m 0 min 0 min 0 W/m 6,3 km/h (2 Bft) 91,49 %
01.11.2017 19:52 9,4 C 8,9 C 6,7 C 86 % 0 lf 1017,5 hPa 0,0 l/m 0 min 0 min 0 W/m 4,2 km/h (1 Bft) 89,36 %
01.11.2017 19:54 9,4 C 8,9 C 6,7 C 87 % 0 lf 1017,5 hPa 0,0 l/m 0 min 0 min 0 W/m 6,3 km/h (2 Bft) 95,74 %
01.11.2017 19:56 9,4 C 8,9 C 6,7 C 87 % 0 lf 1017,5 hPa 0,0 l/m 0 min 0 min 0 W/m 4,2 km/h (1 Bft) 89,36 %
01.11.2017 19:58 9,4 C 8,9 C 7,2 C 87 % 0 lf 1017,5 hPa 0,0 l/m 0 min 0 min 0 W/m 6,3 km/h (2 Bft) 91,49 %
01.11.2017 20:00 9,4 C 8,9 C 7,2 C 87 % 0 lf 1017,4 hPa 0,0 l/m 0 min 0 min 0 W/m 6,3 km/h (2 Bft) 95,65 %
01.11.2017 20:02 9,4 C 8,9 C 7,2 C 87 % 0 lf 1017,5 hPa 0,0 l/m 0 min 0 min 0 W/m 4,2 km/h (1 Bft) 96,00 %
01.11.2017 20:04 9,4 C 8,9 C 7,2 C 88 % 0 lf 1017,4 hPa 0,0 l/m 0 min 0 min 0 W/m 4,2 km/h (1 Bft) 97,87 %
01.11.2017 20:06 9,4 C 8,9 C 7,2 C 88 % 0 lf 1017,4 hPa 0,0 l/m 0 min 0 min 0 W/m 4,2 km/h (1 Bft) 97,87 %
01.11.2017 20:08 9,3 C 8,9 C 7,2 C 88 % 0 lf 1017,3 hPa 0,0 l/m 0 min 0 min 0 W/m 4,2 km/h (1 Bft) 93,62 %
01.11.2017 20:10 9,3 C 9,4 C 7,2 C 88 % 0 lf 1017,3 hPa 0,0 l/m 0 min 0 min 0 W/m 4,2 km/h (1 Bft) 97,83 %
01.11.2017 20:12 9,3 C 8,9 C 7,2 C 88 % 0 lf 1017,3 hPa 0,0 l/m 0 min 0 min 0 W/m 4,2 km/h (1 Bft) 95,74 %
01.11.2017 20:14 9,3 C 8,9 C 7,2 C 88 % 0 lf 1017,4 hPa 0,0 l/m 0 min 0 min 0 W/m 4,2 km/h (1 Bft) 95,74 %
01.11.2017 20:16 9,3 C 9,4 C 7,2 C 88 % 0 lf 1017,4 hPa 0,0 l/m 0 min 0 min 0 W/m 4,2 km/h (1 Bft) 95,74 %
01.11.2017 20:18 9,3 C 9,4 C 7,2 C 88 % 0 lf 1017,3 hPa 0,0 l/m 0 min 0 min 0 W/m 4,2 km/h (1 Bft) 93,62 %
01.11.2017 20:20 9,3 C 9,4 C 7,2 C 88 % 0 lf 1017,2 hPa 0,0 l/m 0 min 0 min 0 W/m 4,2 km/h (1 Bft) 97,87 %
01.11.2017 20:22 9,3 C 9,4 C 7,2 C 88 % 0 lf 1017,2 hPa 0,0 l/m 0 min 0 min 0 W/m 6,3 km/h (2 Bft) 100,00 %
01.11.2017 20:24 9,3 C 9,4 C 7,2 C 88 % 0 lf 1017,3 hPa 0,0 l/m 0 min 0 min 0 W/m 6,3 km/h (2 Bft) 100,00 %
01.11.2017 20:26 9,3 C 9,4 C 7,2 C 88 % 0 lf 1017,3 hPa 0,0 l/m 0 min 0 min 0 W/m 4,2 km/h (1 Bft) 100,00 %
01.11.2017 20:28 9,3 C 9,4 C 7,2 C 89 % 0 lf 1017,3 hPa 0,0 l/m 0 min 0 min 0 W/m 4,2 km/h (1 Bft) 100,00 %
01.11.2017 20:30 9,3 C 9,4 C 7,2 C 89 % 0 lf 1017,2 hPa 0,0 l/m 0 min 0 min 0 W/m 4,2 km/h (1 Bft) 97,87 %
01.11.2017 20:32 9,3 C 9,4 C 7,2 C 89 % 0 lf 1017,3 hPa 0,0 l/m 0 min 0 min 0 W/m 6,3 km/h (2 Bft) 100,00 %
01.11.2017 20:34 9,3 C 9,4 C 7,8 C 89 % 0 lf 1017,2 hPa 0,0 l/m 0 min 0 min 0 W/m 4,2 km/h (1 Bft) 100,00 %
01.11.2017 20:36 9,3 C 9,4 C 7,8 C 89 % 0 lf 1017,2 hPa 0,0 l/m 0 min 0 min 0 W/m 4,2 km/h (1 Bft) 100,00 %
01.11.2017 20:38 9,3 C 9,4 C 7,8 C 89 % 0 lf 1017,2 hPa 0,0 l/m 0 min 0 min 0 W/m 6,3 km/h (2 Bft) 100,00 %
01.11.2017 20:40 9,3 C 9,4 C 7,8 C 89 % 0 lf 1017,2 hPa 0,0 l/m 0 min 0 min 0 W/m 4,2 km/h (1 Bft) 100,00 %
01.11.2017 20:42 9,3 C 9,4 C 7,8 C 89 % 0 lf 1017,2 hPa 0,0 l/m 0 min 0 min 0 W/m 4,2 km/h (1 Bft) 100,00 %
01.11.2017 20:44 9,3 C 9,4 C 7,8 C 90 % 0 lf 1017,2 hPa 0,0 l/m 0 min 0 min 0 W/m 6,3 km/h (2 Bft) 97,87 %
01.11.2017 20:46 9,4 C 9,4 C 7,8 C 90 % 0 lf 1017,2 hPa 0,0 l/m 0 min 0 min 0 W/m 8,4 km/h (2 Bft) 97,83 %
01.11.2017 20:48 9,4 C 9,4 C 7,8 C 90 % 0 lf 1017,2 hPa 0,0 l/m 0 min 0 min 0 W/m 6,3 km/h (2 Bft) 97,87 %
01.11.2017 20:50 9,4 C 9,4 C 7,8 C 90 % 0 lf 1017,2 hPa 0,0 l/m 0 min 0 min 0 W/m 4,2 km/h (1 Bft) 100,00 %
01.11.2017 20:52 9,4 C 9,4 C 7,8 C 90 % 0 lf 1017,2 hPa 0,0 l/m 0 min 0 min 0 W/m 4,2 km/h (1 Bft) 100,00 %
01.11.2017 20:54 9,4 C 9,4 C 7,8 C 90 % 0 lf 1017,2 hPa 0,0 l/m 0 min 0 min 0 W/m 6,3 km/h (2 Bft) 100,00 %
01.11.2017 20:56 9,4 C 9,4 C 7,8 C 90 % 0 lf 1017,2 hPa 0,0 l/m 0 min 0 min 0 W/m 6,3 km/h (2 Bft) 97,87 %
01.11.2017 20:58 9,4 C 9,4 C 7,8 C 90 % 0 lf 1017,3 hPa 0,0 l/m 0 min 0 min 0 W/m 6,3 km/h (2 Bft) 100,00 %
01.11.2017 21:00 9,4 C 9,4 C 7,8 C 90 % 0 lf 1017,2 hPa 0,0 l/m 0 min 0 min 0 W/m 6,3 km/h (2 Bft) 95,74 %
01.11.2017 21:02 9,4 C 10,0 C 7,8 C 90 % 0 lf 1017,2 hPa 0,0 l/m 0 min 0 min 0 W/m 6,3 km/h (2 Bft) 100,00 %
01.11.2017 21:04 9,4 C 10,0 C 7,8 C 90 % 0 lf 1017,2 hPa 0,0 l/m 0 min 0 min 0 W/m 4,2 km/h (1 Bft) 100,00 %
01.11.2017 21:06 9,5 C 10,0 C 7,8 C 90 % 0 lf 1017,2 hPa 0,0 l/m 0 min 0 min 0 W/m 4,2 km/h (1 Bft) 95,74 %
01.11.2017 21:08 9,5 C 10,0 C 7,8 C 90 % 0 lf 1017,1 hPa 0,0 l/m 0 min 0 min 0 W/m 4,2 km/h (1 Bft) 100,00 %
01.11.2017 21:10 9,5 C 10,0 C 7,8 C 90 % 0 lf 1017,1 hPa 0,0 l/m 0 min 0 min 0 W/m 6,3 km/h (2 Bft) 100,00 %
01.11.2017 21:12 9,5 C 10,0 C 7,8 C 90 % 0 lf 1017,1 hPa 0,0 l/m 0 min 0 min 0 W/m 6,3 km/h (2 Bft) 100,00 %
01.11.2017 21:14 9,6 C 10,0 C 7,8 C 90 % 0 lf 1017,0 hPa 0,0 l/m 0 min 0 min 0 W/m 6,3 km/h (2 Bft) 100,00 %
01.11.2017 21:16 9,6 C 10,0 C 7,8 C 90 % 0 lf 1017,0 hPa 0,0 l/m 0 min 0 min 0 W/m 8,4 km/h (2 Bft) 97,87 %
01.11.2017 21:18 9,6 C 10,0 C 7,8 C 91 % 0 lf 1017,0 hPa 0,0 l/m 0 min 0 min 0 W/m 8,4 km/h (2 Bft) 100,00 %
01.11.2017 21:20 9,6 C 10,0 C 7,8 C 91 % 0 lf 1016,9 hPa 0,0 l/m 0 min 0 min 0 W/m 6,3 km/h (2 Bft) 100,00 %
01.11.2017 21:22 9,6 C 10,0 C 8,3 C 91 % 0 lf 1016,9 hPa 0,0 l/m 0 min 0 min 0 W/m 10,5 km/h (2 Bft) 100,00 %
01.11.2017 21:24 9,6 C 10,0 C 8,3 C 91 % 0 lf 1016,9 hPa 0,0 l/m 0 min 0 min 0 W/m 8,4 km/h (2 Bft) 100,00 %
01.11.2017 21:26 9,7 C 10,0 C 8,3 C 91 % 0 lf 1016,8 hPa 0,0 l/m 0 min 0 min 0 W/m 8,4 km/h (2 Bft) 100,00 %
01.11.2017 21:28 9,7 C 10,0 C 8,3 C 91 % 0 lf 1016,8 hPa 0,0 l/m 0 min 0 min 0 W/m 6,3 km/h (2 Bft) 97,87 %
01.11.2017 21:30 9,7 C 10,0 C 8,3 C 91 % 0 lf 1016,7 hPa 0,0 l/m 0 min 0 min 0 W/m 8,4 km/h (2 Bft) 95,74 %
01.11.2017 21:32 9,7 C 10,0 C 8,3 C 91 % 0 lf 1016,7 hPa 0,0 l/m 0 min 0 min 0 W/m 6,3 km/h (2 Bft) 97,83 %
01.11.2017 21:34 9,8 C 10,0 C 8,9 C 91 % 0 lf 1016,7 hPa 0,0 l/m 0 min 0 min 0 W/m 6,3 km/h (2 Bft) 100,00 %
01.11.2017 21:36 9,8 C 10,0 C 8,3 C 91 % 0 lf 1016,7 hPa 0,0 l/m 0 min 0 min 0 W/m 6,3 km/h (2 Bft) 97,87 %
01.11.2017 21:38 9,8 C 10,0 C 8,3 C 91 % 0 lf 1016,5 hPa 0,0 l/m 0 min 0 min 0 W/m 6,3 km/h (2 Bft) 100,00 %
01.11.2017 21:40 9,8 C 10,0 C 8,3 C 91 % 0 lf 1016,6 hPa 0,0 l/m 0 min 0 min 0 W/m 6,3 km/h (2 Bft) 95,74 %
01.11.2017 21:42 9,8 C 10,0 C 8,9 C 91 % 0 lf 1016,5 hPa 0,0 l/m 0 min 0 min 0 W/m 8,4 km/h (2 Bft) 97,87 %
01.11.2017 21:44 9,9 C 10,0 C 8,9 C 91 % 0 lf 1016,5 hPa 0,0 l/m 0 min 0 min 0 W/m 8,4 km/h (2 Bft) 97,83 %
01.11.2017 21:46 9,9 C 10,6 C 8,9 C 90 % 0 lf 1016,5 hPa 0,0 l/m 0 min 0 min 0 W/m 6,3 km/h (2 Bft) 93,62 %
01.11.2017 21:48 9,9 C 10,6 C 8,9 C 90 % 0 lf 1016,5 hPa 0,0 l/m 0 min 0 min 0 W/m 8,4 km/h (2 Bft) 100,00 %
01.11.2017 21:50 9,9 C 10,0 C 8,9 C 91 % 0 lf 1016,5 hPa 0,0 l/m 0 min 0 min 0 W/m 6,3 km/h (2 Bft) 97,87 %
01.11.2017 21:52 9,9 C 10,0 C 8,3 C 90 % 0 lf 1016,4 hPa 0,0 l/m 0 min 0 min 0 W/m 6,3 km/h (2 Bft) 93,62 %
01.11.2017 21:54 9,9 C 10,0 C 8,3 C 90 % 0 lf 1016,4 hPa 0,0 l/m 0 min 0 min 0 W/m 6,3 km/h (2 Bft) 95,74 %
01.11.2017 21:56 10,0 C 10,0 C 8,3 C 90 % 0 lf 1016,5 hPa 0,0 l/m 0 min 0 min 0 W/m 6,3 km/h (2 Bft) 95,65 %
01.11.2017 21:58 10,0 C 10,0 C 8,3 C 90 % 0 lf 1016,4 hPa 0,0 l/m 0 min 0 min 0 W/m 6,3 km/h (2 Bft) 93,62 %
01.11.2017 22:00 10,0 C 10,0 C 8,3 C 90 % 0 lf 1016,3 hPa 0,0 l/m 0 min 0 min 0 W/m 6,3 km/h (2 Bft) 95,74 %
01.11.2017 22:02 10,0 C 10,0 C 8,9 C 90 % 0 lf 1016,4 hPa 0,0 l/m 0 min 0 min 0 W/m 6,3 km/h (2 Bft) 95,74 %
01.11.2017 22:04 10,1 C 10,0 C 8,9 C 90 % 0 lf 1016,3 hPa 0,0 l/m 0 min 0 min 0 W/m 8,4 km/h (2 Bft) 95,74 %
01.11.2017 22:06 10,1 C 10,0 C 8,9 C 90 % 0 lf 1016,3 hPa 0,0 l/m 0 min 0 min 0 W/m 8,4 km/h (2 Bft) 95,74 %
01.11.2017 22:08 10,1 C 10,0 C 8,9 C 90 % 0 lf 1016,2 hPa 0,0 l/m 0 min 0 min 0 W/m 8,4 km/h (2 Bft) 93,48 %
01.11.2017 22:10 10,1 C 10,0 C 8,9 C 90 % 0 lf 1016,2 hPa 0,0 l/m 0 min 0 min 0 W/m 6,3 km/h (2 Bft) 91,49 %
01.11.2017 22:12 10,1 C 10,0 C 8,9 C 90 % 0 lf 1016,2 hPa 0,0 l/m 0 min 0 min 0 W/m 8,4 km/h (2 Bft) 93,62 %
01.11.2017 22:14 10,1 C 10,0 C 8,9 C 89 % 0 lf 1016,1 hPa 0,0 l/m 0 min 0 min 0 W/m 10,5 km/h (2 Bft) 93,62 %
01.11.2017 22:16 10,2 C 10,0 C 8,9 C 90 % 0 lf 1016,1 hPa 0,0 l/m 0 min 0 min 0 W/m 10,5 km/h (2 Bft) 89,36 %
01.11.2017 22:18 10,2 C 10,0 C 8,9 C 89 % 0 lf 1016,0 hPa 0,0 l/m 0 min 0 min 0 W/m 10,5 km/h (2 Bft) 95,74 %
01.11.2017 22:20 10,2 C 10,6 C 8,9 C 89 % 0 lf 1016,1 hPa 0,0 l/m 0 min 0 min 0 W/m 10,5 km/h (2 Bft) 93,48 %
01.11.2017 22:22 10,2 C 10,6 C 8,9 C 89 % 0 lf 1016,0 hPa 0,0 l/m 0 min 0 min 0 W/m 8,4 km/h (2 Bft) 93,62 %
01.11.2017 22:24 10,2 C 10,0 C 8,9 C 89 % 0 lf 1016,0 hPa 0,0 l/m 0 min 0 min 0 W/m 8,4 km/h (2 Bft) 95,74 %
01.11.2017 22:26 10,2 C 10,0 C 8,9 C 89 % 0 lf 1015,9 hPa 0,0 l/m 0 min 0 min 0 W/m 8,4 km/h (2 Bft) 95,74 %
01.11.2017 22:28 10,2 C 10,0 C 8,9 C 89 % 0 lf 1015,9 hPa 0,0 l/m 0 min 0 min 0 W/m 10,5 km/h (2 Bft) 91,49 %
01.11.2017 22:30 10,2 C 10,0 C 8,9 C 89 % 0 lf 1015,8 hPa 0,0 l/m 0 min 0 min 0 W/m 10,5 km/h (2 Bft) 91,49 %
01.11.2017 22:32 10,3 C 10,0 C 8,9 C 89 % 0 lf 1015,8 hPa 0,0 l/m 0 min 0 min 0 W/m 10,5 km/h (2 Bft) 95,65 %
01.11.2017 22:34 10,3 C 10,0 C 8,9 C 89 % 0 lf 1015,7 hPa 0,0 l/m 0 min 0 min 0 W/m 10,5 km/h (2 Bft) 95,74 %
01.11.2017 22:36 10,3 C 10,0 C 8,9 C 89 % 0 lf 1015,8 hPa 0,0 l/m 0 min 0 min 0 W/m 14,6 km/h (3 Bft) 93,62 %
01.11.2017 22:38 10,3 C 10,0 C 8,9 C 89 % 0 lf 1015,8 hPa 0,0 l/m 0 min 0 min 0 W/m 10,5 km/h (2 Bft) 93,62 %
01.11.2017 22:40 10,3 C 10,0 C 8,9 C 89 % 0 lf 1015,7 hPa 0,0 l/m 0 min 0 min 0 W/m 10,5 km/h (2 Bft) 95,74 %
01.11.2017 22:42 10,3 C 10,0 C 8,9 C 89 % 0 lf 1015,7 hPa 0,0 l/m 0 min 0 min 0 W/m 10,5 km/h (2 Bft) 97,87 %
01.11.2017 22:44 10,3 C 10,0 C 8,9 C 89 % 0 lf 1015,7 hPa 0,0 l/m 0 min 0 min 0 W/m 10,5 km/h (2 Bft) 95,65 %
01.11.2017 22:46 10,3 C 10,0 C 8,9 C 88 % 0 lf 1015,7 hPa 0,0 l/m 0 min 0 min 0 W/m 10,5 km/h (2 Bft) 89,36 %
01.11.2017 22:48 10,3 C 10,0 C 8,9 C 88 % 0 lf 1015,7 hPa 0,0 l/m 0 min 0 min 0 W/m 6,3 km/h (2 Bft) 95,74 %
01.11.2017 22:50 10,3 C 10,0 C 8,9 C 88 % 0 lf 1015,6 hPa 0,0 l/m 0 min 0 min 0 W/m 10,5 km/h (2 Bft) 95,74 %
01.11.2017 22:52 10,3 C 10,0 C 8,9 C 88 % 0 lf 1015,7 hPa 0,0 l/m 0 min 0 min 0 W/m 10,5 km/h (2 Bft) 95,74 %
01.11.2017 22:54 10,3 C 10,0 C 8,9 C 89 % 0 lf 1015,7 hPa 0,0 l/m 0 min 0 min 0 W/m 8,4 km/h (2 Bft) 97,83 %
01.11.2017 22:56 10,3 C 10,0 C 8,9 C 89 % 0 lf 1015,6 hPa 0,0 l/m 0 min 0 min 0 W/m 8,4 km/h (2 Bft) 93,62 %
01.11.2017 22:58 10,2 C 10,0 C 8,9 C 89 % 0 lf 1015,6 hPa 0,0 l/m 0 min 0 min 0 W/m 8,4 km/h (2 Bft) 97,87 %
01.11.2017 23:00 10,2 C 10,0 C 8,9 C 89 % 0 lf 1015,6 hPa 0,0 l/m 0 min 0 min 0 W/m 8,4 km/h (2 Bft) 95,74 %
01.11.2017 23:02 10,2 C 10,0 C 8,9 C 89 % 0 lf 1015,6 hPa 0,0 l/m 0 min 0 min 0 W/m 8,4 km/h (2 Bft) 95,74 %
01.11.2017 23:04 10,2 C 10,0 C 8,9 C 89 % 0 lf 1015,5 hPa 0,0 l/m 0 min 0 min 0 W/m 8,4 km/h (2 Bft) 97,87 %
01.11.2017 23:06 10,2 C 10,0 C 8,9 C 89 % 0 lf 1015,5 hPa 0,0 l/m 0 min 0 min 0 W/m 8,4 km/h (2 Bft) 95,65 %
01.11.2017 23:08 10,2 C 10,0 C 8,9 C 89 % 0 lf 1015,5 hPa 0,0 l/m 0 min 0 min 0 W/m 8,4 km/h (2 Bft) 95,74 %
01.11.2017 23:10 10,2 C 10,0 C 8,9 C 89 % 0 lf 1015,5 hPa 0,0 l/m 0 min 0 min 0 W/m 8,4 km/h (2 Bft) 97,87 %
01.11.2017 23:12 10,2 C 10,0 C 8,9 C 89 % 0 lf 1015,5 hPa 0,0 l/m 0 min 0 min 0 W/m 8,4 km/h (2 Bft) 93,62 %
01.11.2017 23:14 10,2 C 10,0 C 8,9 C 89 % 0 lf 1015,4 hPa 0,0 l/m 0 min 0 min 0 W/m 10,5 km/h (2 Bft) 95,74 %
01.11.2017 23:16 10,2 C 10,0 C 8,9 C 89 % 0 lf 1015,5 hPa 0,0 l/m 0 min 0 min 0 W/m 10,5 km/h (2 Bft) 97,87 %
01.11.2017 23:18 10,2 C 10,0 C 8,9 C 89 % 0 lf 1015,5 hPa 0,0 l/m 0 min 0 min 0 W/m 6,3 km/h (2 Bft) 97,83 %
01.11.2017 23:20 10,2 C 10,0 C 8,9 C 89 % 0 lf 1015,6 hPa 0,0 l/m 0 min 0 min 0 W/m 6,3 km/h (2 Bft) 95,74 %
01.11.2017 23:22 10,2 C 10,0 C 8,9 C 89 % 0 lf 1015,5 hPa 0,0 l/m 0 min 0 min 0 W/m 8,4 km/h (2 Bft) 97,87 %
01.11.2017 23:24 10,1 C 10,0 C 8,9 C 89 % 0 lf 1015,6 hPa 0,0 l/m 0 min 0 min 0 W/m 6,3 km/h (2 Bft) 97,87 %
01.11.2017 23:26 10,1 C 10,0 C 8,9 C 89 % 0 lf 1015,5 hPa 0,0 l/m 0 min 0 min 0 W/m 8,4 km/h (2 Bft) 97,87 %
01.11.2017 23:28 10,1 C 10,0 C 8,9 C 89 % 0 lf 1015,5 hPa 0,0 l/m 0 min 0 min 0 W/m 6,3 km/h (2 Bft) 97,87 %
01.11.2017 23:30 10,1 C 10,0 C 8,9 C 89 % 0 lf 1015,5 hPa 0,0 l/m 0 min 0 min 0 W/m 6,3 km/h (2 Bft) 95,65 %
01.11.2017 23:32 10,1 C 10,0 C 8,3 C 89 % 0 lf 1015,4 hPa 0,0 l/m 0 min 0 min 0 W/m 6,3 km/h (2 Bft) 97,87 %
01.11.2017 23:34 10,1 C 10,0 C 8,3 C 89 % 0 lf 1015,4 hPa 0,0 l/m 0 min 0 min 0 W/m 6,3 km/h (2 Bft) 97,87 %
01.11.2017 23:36 10,1 C 10,0 C 8,9 C 89 % 0 lf 1015,3 hPa 0,0 l/m 0 min 0 min 0 W/m 8,4 km/h (2 Bft) 97,87 %
01.11.2017 23:38 10,1 C 10,0 C 8,9 C 89 % 0 lf 1015,3 hPa 0,0 l/m 0 min 0 min 0 W/m 6,3 km/h (2 Bft) 95,74 %
01.11.2017 23:40 10,1 C 10,0 C 8,9 C 89 % 0 lf 1015,4 hPa 0,0 l/m 0 min 0 min 0 W/m 6,3 km/h (2 Bft) 93,62 %
01.11.2017 23:42 10,1 C 10,0 C 8,9 C 89 % 0 lf 1015,3 hPa 0,0 l/m 0 min 0 min 0 W/m 8,4 km/h (2 Bft) 93,48 %
01.11.2017 23:44 10,1 C 10,0 C 8,9 C 89 % 0 lf 1015,3 hPa 0,0 l/m 0 min 0 min 0 W/m 8,4 km/h (2 Bft) 97,87 %
01.11.2017 23:46 10,1 C 10,0 C 8,9 C 90 % 0 lf 1015,3 hPa 0,0 l/m 0 min 0 min 0 W/m 8,4 km/h (2 Bft) 97,87 %
01.11.2017 23:48 10,1 C 10,0 C 8,9 C 89 % 0 lf 1015,3 hPa 0,0 l/m 0 min 0 min 0 W/m 6,3 km/h (2 Bft) 97,87 %
01.11.2017 23:50 10,1 C 10,0 C 8,9 C 89 % 0 lf 1015,3 hPa 0,0 l/m 0 min 0 min 0 W/m 8,4 km/h (2 Bft) 97,87 %
01.11.2017 23:52 10,1 C 10,0 C 8,9 C 89 % 0 lf 1015,2 hPa 0,0 l/m 0 min 0 min 0 W/m 8,4 km/h (2 Bft) 93,62 %
01.11.2017 23:54 10,1 C 10,0 C 8,9 C 90 % 0 lf 1015,2 hPa 0,0 l/m 0 min 0 min 0 W/m 10,5 km/h (2 Bft) 95,65 %
01.11.2017 23:56 10,1 C 10,0 C 8,9 C 90 % 0 lf 1015,2 hPa 0,0 l/m 0 min 0 min 0 W/m 6,3 km/h (2 Bft) 97,87 %
01.11.2017 23:58 10,1 C 10,0 C 8,9 C 90 % 0 lf 1015,2 hPa 0,0 l/m 0 min 0 min 0 W/m 8,4 km/h (2 Bft) 97,87 %
_ Min-Zeit 00:46 00:12 19:02 15:22 00:00 23:52 - - - - 19:36 05:40
Minimum _ 9,2 C 8,3 C 6,7 C 72 % 0 lf 1015,2 hPa - - - - 0,0 km/h (0 Bft) 54,39 %
_ Max-Zeit 13:54 13:28 13:12 08:10 00:07 00:00 00:00 12:10 00:07 11:52 10:44 01:08
Maximum _ 14,8 C 23,3 C 12,8 C 91 % 11 lf 1022,2 hPa 0,0 l/m 4 min 3 min 381 W/m 27,2 km/h
W (4 Bft)
100,00 %
Durchschnitt _ 10,8 C 11,5 C 9,2 C 85 % 0 lf 1020,1 hPa #0,0 l/m #4:04 h #6 min. 160 W/m 12,3 km/h (3 Bft) 96,45 %
© 2017 W. Hausmann